Time,TemperatureF,DewpointF,PressureIn,WindDirection,WindDirectionDegrees,WindSpeedMPH,WindSpeedGustMPH,Humidity,HourlyPrecipIn,Conditions,Clouds,dailyrainin,SoftwareType,DateUTC
2013-08-19 00:01:00,62.7,61.8,30.29,SE,139,2.0,4.0,97,0.00,,,0.00,Wunderground v.1.15,2013-08-19 04:01:00,
2013-08-19 00:03:00,62.8,61.9,30.29,South,181,3.0,4.0,97,0.00,,,0.00,Wunderground v.1.15,2013-08-19 04:03:00,
2013-08-19 00:04:00,62.8,62.0,30.29,South,171,2.0,5.0,97,0.00,,,0.00,weatherlink.com 1.10,2013-08-19 04:04:00,
2013-08-19 00:07:00,62.8,61.9,30.29,SSE,150,3.0,4.0,97,0.00,,,0.00,Wunderground v.1.15,2013-08-19 04:07:00,
2013-08-19 00:08:00,62.8,61.9,30.29,SSE,158,1.0,4.0,97,0.00,,,0.00,Wunderground v.1.15,2013-08-19 04:08:00,
2013-08-19 00:10:00,62.8,61.9,30.29,SSE,163,2.0,2.0,97,0.00,,,0.00,Wunderground v.1.15,2013-08-19 04:10:00,
2013-08-19 00:13:00,62.8,61.9,30.29,SSW,193,0.0,2.0,97,0.00,,,0.00,Wunderground v.1.15,2013-08-19 04:13:00,
2013-08-19 00:15:00,62.8,62.0,30.29,SSW,192,0.0,4.0,97,0.00,,,0.00,weatherlink.com 1.10,2013-08-19 04:15:00,
2013-08-19 00:16:00,62.8,61.9,30.29,South,189,1.0,2.0,97,0.00,,,0.00,Wunderground v.1.15,2013-08-19 04:16:00,
2013-08-19 00:19:00,62.8,61.9,30.29,South,189,0.0,2.0,97,0.00,,,0.00,Wunderground v.1.15,2013-08-19 04:19:00,
2013-08-19 00:21:00,62.7,61.8,30.28,South,189,0.0,0.0,97,0.00,,,0.00,Wunderground v.1.15,2013-08-19 04:21:00,
2013-08-19 00:22:00,62.8,61.9,30.28,East,100,1.0,1.0,97,0.00,,,0.00,Wunderground v.1.15,2013-08-19 04:22:00,
2013-08-19 00:27:00,62.7,61.8,30.28,South,178,1.0,1.0,97,0.00,,,0.00,Wunderground v.1.15,2013-08-19 04:27:00,
2013-08-19 00:28:00,62.7,61.8,30.28,East,82,2.0,2.0,97,0.00,,,0.00,Wunderground v.1.15,2013-08-19 04:28:00,
2013-08-19 00:30:00,62.7,62.0,30.28,ENE,70,0.0,3.0,97,0.00,,,0.00,weatherlink.com 1.10,2013-08-19 04:30:00,
2013-08-19 00:31:00,62.7,61.8,30.28,ENE,70,0.0,0.0,97,0.00,,,0.00,Wunderground v.1.15,2013-08-19 04:31:00,
2013-08-19 00:34:00,62.7,61.8,30.28,ENE,70,0.0,0.0,97,0.00,,,0.00,Wunderground v.1.15,2013-08-19 04:34:00,
2013-08-19 00:35:00,62.7,61.8,30.28,East,101,0.0,0.0,97,0.00,,,0.00,Wunderground v.1.15,2013-08-19 04:35:00,
2013-08-19 00:37:00,62.7,61.8,30.28,East,101,0.0,0.0,97,0.00,,,0.00,Wunderground v.1.15,2013-08-19 04:37:00,
2013-08-19 00:38:00,62.7,61.8,30.28,East,101,0.0,0.0,97,0.00,,,0.00,Wunderground v.1.15,2013-08-19 04:38:00,
2013-08-19 00:41:00,62.7,61.8,30.28,East,101,0.0,0.0,97,0.00,,,0.00,Wunderground v.1.15,2013-08-19 04:41:00,
2013-08-19 00:44:00,62.7,61.8,30.28,East,101,0.0,0.0,97,0.00,,,0.00,Wunderground v.1.15,2013-08-19 04:44:00,
2013-08-19 00:45:00,62.7,62.0,30.28,East,101,0.0,1.0,97,0.00,,,0.00,weatherlink.com 1.10,2013-08-19 04:45:00,
2013-08-19 00:48:00,62.7,61.8,30.28,East,101,0.0,0.0,97,0.00,,,0.00,Wunderground v.1.15,2013-08-19 04:48:00,
2013-08-19 00:50:00,62.7,61.8,30.28,East,101,0.0,0.0,97,0.00,,,0.00,Wunderground v.1.15,2013-08-19 04:50:00,
2013-08-19 00:51:00,62.7,61.8,30.28,East,101,0.0,0.0,97,0.00,,,0.00,Wunderground v.1.15,2013-08-19 04:51:00,
2013-08-19 00:52:00,62.7,61.8,30.28,East,101,0.0,0.0,97,0.00,,,0.00,Wunderground v.1.15,2013-08-19 04:52:00,
2013-08-19 00:56:00,62.7,61.8,30.28,East,101,0.0,0.0,97,0.00,,,0.00,Wunderground v.1.15,2013-08-19 04:56:00,
2013-08-19 00:57:00,62.7,61.8,30.28,East,101,0.0,0.0,97,0.00,,,0.00,Wunderground v.1.15,2013-08-19 04:57:00,
2013-08-19 00:58:00,62.7,61.8,30.28,East,101,0.0,0.0,97,0.00,,,0.00,Wunderground v.1.15,2013-08-19 04:58:00,
2013-08-19 00:59:00,62.7,61.8,30.28,East,101,0.0,0.0,97,0.00,,,0.00,Wunderground v.1.15,2013-08-19 04:59:00,
2013-08-19 01:02:00,62.7,61.8,30.28,East,101,0.0,0.0,97,0.00,,,0.00,Wunderground v.1.15,2013-08-19 05:02:00,
2013-08-19 01:05:00,62.7,61.8,30.28,East,101,0.0,0.0,97,0.00,,,0.00,Wunderground v.1.15,2013-08-19 05:05:00,
2013-08-19 01:06:00,62.7,61.8,30.27,East,101,0.0,0.0,97,0.00,,,0.00,Wunderground v.1.15,2013-08-19 05:06:00,
2013-08-19 01:08:00,62.7,61.8,30.27,East,101,0.0,0.0,97,0.00,,,0.00,Wunderground v.1.15,2013-08-19 05:08:00,
2013-08-19 01:10:00,62.7,61.8,30.27,East,101,0.0,0.0,97,0.00,,,0.00,Wunderground v.1.15,2013-08-19 05:10:00,
2013-08-19 01:11:00,62.7,61.8,30.27,East,101,0.0,0.0,97,0.00,,,0.00,Wunderground v.1.15,2013-08-19 05:11:00,
2013-08-19 01:12:00,62.8,61.9,30.27,East,101,0.0,0.0,97,0.00,,,0.00,Wunderground v.1.15,2013-08-19 05:12:00,
2013-08-19 01:14:00,62.8,61.9,30.27,East,101,0.0,0.0,97,0.00,,,0.00,Wunderground v.1.15,2013-08-19 05:14:00,
2013-08-19 01:15:00,62.8,62.0,30.27,East,101,0.0,1.0,97,0.00,,,0.00,weatherlink.com 1.10,2013-08-19 05:15:00,
2013-08-19 01:19:00,62.8,61.9,30.27,East,101,0.0,0.0,97,0.00,,,0.00,Wunderground v.1.15,2013-08-19 05:19:00,
2013-08-19 01:20:00,62.8,61.9,30.27,East,101,0.0,0.0,97,0.00,,,0.00,Wunderground v.1.15,2013-08-19 05:20:00,
2013-08-19 01:22:00,62.8,61.9,30.27,East,101,0.0,0.0,97,0.00,,,0.00,Wunderground v.1.15,2013-08-19 05:22:00,
2013-08-19 01:25:00,62.7,61.8,30.27,East,101,0.0,0.0,97,0.00,,,0.00,Wunderground v.1.15,2013-08-19 05:25:00,
2013-08-19 01:26:00,62.7,61.8,30.27,East,101,0.0,0.0,97,0.00,,,0.00,Wunderground v.1.15,2013-08-19 05:26:00,
2013-08-19 01:27:00,62.7,61.8,30.27,East,101,0.0,0.0,97,0.00,,,0.00,Wunderground v.1.15,2013-08-19 05:27:00,
2013-08-19 01:29:00,62.7,61.8,30.27,East,101,0.0,0.0,97,0.00,,,0.00,Wunderground v.1.15,2013-08-19 05:29:00,
2013-08-19 01:31:00,62.7,62.0,30.27,East,101,0.0,0.0,97,0.00,,,0.00,weatherlink.com 1.10,2013-08-19 05:31:00,
2013-08-19 01:35:00,62.7,61.8,30.26,SE,127,1.0,1.0,97,0.00,,,0.00,Wunderground v.1.15,2013-08-19 05:35:00,
2013-08-19 01:36:00,62.7,61.8,30.26,SE,127,0.0,1.0,97,0.00,,,0.00,Wunderground v.1.15,2013-08-19 05:36:00,
2013-08-19 01:41:00,62.7,61.8,30.26,South,173,0.0,1.0,97,0.00,,,0.00,Wunderground v.1.15,2013-08-19 05:41:00,
2013-08-19 01:42:00,62.7,61.8,30.26,South,173,1.0,1.0,97,0.00,,,0.00,Wunderground v.1.15,2013-08-19 05:42:00,
2013-08-19 01:43:00,62.7,61.8,30.26,SSE,159,2.0,2.0,97,0.00,,,0.00,Wunderground v.1.15,2013-08-19 05:43:00,
2013-08-19 01:46:00,62.7,61.8,30.26,SSE,160,1.0,2.0,97,0.00,,,0.00,Wunderground v.1.15,2013-08-19 05:46:00,
2013-08-19 01:47:00,62.7,62.0,30.26,SSE,160,1.0,3.0,97,0.00,,,0.00,weatherlink.com 1.10,2013-08-19 05:47:00,
2013-08-19 01:49:00,62.6,61.7,30.26,SSE,160,0.0,2.0,97,0.00,,,0.00,Wunderground v.1.15,2013-08-19 05:49:00,
2013-08-19 01:53:00,62.6,61.7,30.26,SE,134,0.0,1.0,97,0.00,,,0.00,Wunderground v.1.15,2013-08-19 05:53:00,
2013-08-19 01:55:00,62.6,61.7,30.26,South,169,1.0,2.0,97,0.00,,,0.00,Wunderground v.1.15,2013-08-19 05:55:00,
2013-08-19 01:57:00,62.6,61.7,30.26,SSE,165,3.0,3.0,97,0.00,,,0.00,Wunderground v.1.15,2013-08-19 05:57:00,
2013-08-19 01:58:00,62.6,61.7,30.26,SSE,152,1.0,3.0,97,0.00,,,0.00,Wunderground v.1.15,2013-08-19 05:58:00,
2013-08-19 02:01:00,62.6,61.7,30.26,SSE,156,0.0,2.0,97,0.00,,,0.00,Wunderground v.1.15,2013-08-19 06:01:00,
2013-08-19 02:03:00,62.5,61.6,30.26,South,180,3.0,4.0,97,0.00,,,0.00,Wunderground v.1.15,2013-08-19 06:03:00,
2013-08-19 02:06:00,62.5,61.6,30.26,SSE,153,0.0,4.0,97,0.00,,,0.00,Wunderground v.1.15,2013-08-19 06:06:00,
2013-08-19 02:07:00,62.5,61.6,30.26,SSE,154,4.0,4.0,97,0.00,,,0.00,Wunderground v.1.15,2013-08-19 06:07:00,
2013-08-19 02:08:00,62.5,61.6,30.26,SSW,198,0.0,4.0,97,0.00,,,0.00,Wunderground v.1.15,2013-08-19 06:08:00,
2013-08-19 02:11:00,62.5,61.6,30.26,SW,227,0.0,2.0,97,0.00,,,0.00,Wunderground v.1.15,2013-08-19 06:11:00,
2013-08-19 02:12:00,62.5,61.6,30.26,SSW,208,2.0,2.0,97,0.00,,,0.00,Wunderground v.1.15,2013-08-19 06:12:00,
2013-08-19 02:13:00,62.4,61.5,30.26,SW,216,0.0,3.0,97,0.00,,,0.00,Wunderground v.1.15,2013-08-19 06:13:00,
2013-08-19 02:16:00,62.4,61.5,30.26,South,182,0.0,4.0,97,0.00,,,0.00,Wunderground v.1.15,2013-08-19 06:16:00,
2013-08-19 02:17:00,62.4,61.5,30.26,South,182,0.0,4.0,97,0.00,,,0.00,Wunderground v.1.15,2013-08-19 06:17:00,
2013-08-19 02:18:00,62.4,61.5,30.26,SSW,195,2.0,4.0,97,0.00,,,0.00,Wunderground v.1.15,2013-08-19 06:18:00,
2013-08-19 02:22:00,62.3,61.4,30.26,SSW,208,1.0,2.0,97,0.00,,,0.00,Wunderground v.1.15,2013-08-19 06:22:00,
2013-08-19 02:23:00,62.3,61.4,30.26,SSW,200,2.0,3.0,97,0.00,,,0.00,Wunderground v.1.15,2013-08-19 06:23:00,
2013-08-19 02:24:00,62.3,61.4,30.26,SSW,200,2.0,3.0,97,0.00,,,0.00,Wunderground v.1.15,2013-08-19 06:24:00,
2013-08-19 02:27:00,62.3,61.4,30.26,SSW,200,0.0,3.0,97,0.00,,,0.00,Wunderground v.1.15,2013-08-19 06:27:00,
2013-08-19 02:28:00,62.3,61.4,30.26,SSW,200,0.0,3.0,97,0.00,,,0.00,Wunderground v.1.15,2013-08-19 06:28:00,
2013-08-19 02:29:00,62.3,61.4,30.26,SSW,200,0.0,3.0,97,0.00,,,0.00,Wunderground v.1.15,2013-08-19 06:29:00,
2013-08-19 02:32:00,62.3,61.4,30.26,South,190,0.0,2.0,97,0.00,,,0.00,Wunderground v.1.15,2013-08-19 06:32:00,
2013-08-19 02:33:00,62.3,61.4,30.26,South,190,0.0,2.0,97,0.00,,,0.00,Wunderground v.1.15,2013-08-19 06:33:00,
2013-08-19 02:34:00,62.3,61.4,30.26,South,191,1.0,2.0,97,0.00,,,0.00,Wunderground v.1.15,2013-08-19 06:34:00,
2013-08-19 02:37:00,62.2,61.3,30.26,SSW,202,0.0,2.0,97,0.00,,,0.00,Wunderground v.1.15,2013-08-19 06:37:00,
2013-08-19 02:38:00,62.2,61.3,30.26,South,184,3.0,3.0,97,0.00,,,0.00,Wunderground v.1.15,2013-08-19 06:38:00,
2013-08-19 02:39:00,62.2,61.3,30.26,South,184,1.0,3.0,97,0.00,,,0.00,Wunderground v.1.15,2013-08-19 06:39:00,
2013-08-19 02:42:00,62.2,61.3,30.26,SSW,211,3.0,3.0,97,0.00,,,0.00,Wunderground v.1.15,2013-08-19 06:42:00,
2013-08-19 02:44:00,62.2,61.3,30.26,SSW,207,1.0,4.0,97,0.00,,,0.00,Wunderground v.1.15,2013-08-19 06:44:00,
2013-08-19 02:48:00,62.2,61.3,30.26,SSW,207,0.0,4.0,97,0.00,,,0.00,Wunderground v.1.15,2013-08-19 06:48:00,
2013-08-19 02:49:00,62.2,61.3,30.26,SSW,209,1.0,4.0,97,0.00,,,0.00,Wunderground v.1.15,2013-08-19 06:49:00,
2013-08-19 02:50:00,62.2,61.3,30.26,SSW,209,0.0,1.0,97,0.00,,,0.00,Wunderground v.1.15,2013-08-19 06:50:00,
2013-08-19 02:54:00,62.1,61.2,30.25,SSW,209,0.0,1.0,97,0.00,,,0.00,Wunderground v.1.15,2013-08-19 06:54:00,
2013-08-19 02:55:00,62.1,61.2,30.25,SSW,209,0.0,1.0,97,0.00,,,0.00,Wunderground v.1.15,2013-08-19 06:55:00,
2013-08-19 02:59:00,62.1,61.2,30.25,South,177,0.0,3.0,97,0.00,,,0.00,Wunderground v.1.15,2013-08-19 06:59:00,
2013-08-19 03:00:00,62.1,61.2,30.25,South,177,0.0,0.0,97,0.00,,,0.00,Wunderground v.1.15,2013-08-19 07:00:00,
2013-08-19 03:04:00,62.1,61.2,30.25,South,177,1.0,2.0,97,0.00,,,0.00,Wunderground v.1.15,2013-08-19 07:04:00,
2013-08-19 03:05:00,62.1,61.2,30.25,South,177,0.0,2.0,97,0.00,,,0.00,Wunderground v.1.15,2013-08-19 07:05:00,
2013-08-19 03:09:00,62.2,61.3,30.25,South,177,1.0,2.0,97,0.00,,,0.00,Wunderground v.1.15,2013-08-19 07:09:00,
2013-08-19 03:10:00,62.1,61.2,30.25,South,177,0.0,0.0,97,0.00,,,0.00,Wunderground v.1.15,2013-08-19 07:10:00,
2013-08-19 03:14:00,62.2,61.3,30.25,South,177,0.0,1.0,97,0.00,,,0.00,Wunderground v.1.15,2013-08-19 07:14:00,
2013-08-19 03:15:00,62.1,61.2,30.25,South,177,0.0,1.0,97,0.00,,,0.00,Wunderground v.1.15,2013-08-19 07:15:00,
2013-08-19 03:18:00,62.1,61.2,30.25,South,177,0.0,1.0,97,0.00,,,0.00,Wunderground v.1.15,2013-08-19 07:18:00,
2013-08-19 03:19:00,62.1,61.2,30.25,South,177,0.0,1.0,97,0.00,,,0.00,Wunderground v.1.15,2013-08-19 07:19:00,
2013-08-19 03:20:00,62.1,61.2,30.25,South,177,0.0,0.0,97,0.00,,,0.00,Wunderground v.1.15,2013-08-19 07:20:00,
2013-08-19 03:21:00,62.1,61.2,30.25,South,177,0.0,0.0,97,0.00,,,0.00,Wunderground v.1.15,2013-08-19 07:21:00,
2013-08-19 03:23:00,62.2,61.3,30.25,South,177,0.0,0.0,97,0.00,,,0.00,Wunderground v.1.15,2013-08-19 07:23:00,
2013-08-19 03:24:00,62.2,61.3,30.25,South,177,0.0,0.0,97,0.00,,,0.00,Wunderground v.1.15,2013-08-19 07:24:00,
2013-08-19 03:25:00,62.1,61.2,30.25,South,177,0.0,0.0,97,0.00,,,0.00,Wunderground v.1.15,2013-08-19 07:25:00,
2013-08-19 03:26:00,62.2,61.3,30.25,South,177,0.0,0.0,97,0.00,,,0.00,Wunderground v.1.15,2013-08-19 07:26:00,
2013-08-19 03:28:00,62.2,61.3,30.25,South,177,0.0,0.0,97,0.00,,,0.00,Wunderground v.1.15,2013-08-19 07:28:00,
2013-08-19 03:30:00,62.1,61.2,30.25,South,177,0.0,0.0,97,0.00,,,0.00,Wunderground v.1.15,2013-08-19 07:30:00,
2013-08-19 03:31:00,62.1,61.2,30.25,South,177,0.0,0.0,97,0.00,,,0.00,Wunderground v.1.15,2013-08-19 07:31:00,
2013-08-19 03:33:00,62.1,61.2,30.25,South,177,0.0,0.0,97,0.00,,,0.00,Wunderground v.1.15,2013-08-19 07:33:00,
2013-08-19 03:35:00,62.1,61.2,30.25,South,177,0.0,0.0,97,0.00,,,0.00,Wunderground v.1.15,2013-08-19 07:35:00,
2013-08-19 03:36:00,62.1,61.2,30.25,South,177,0.0,0.0,97,0.00,,,0.00,Wunderground v.1.15,2013-08-19 07:36:00,
2013-08-19 03:38:00,62.1,61.2,30.25,South,177,0.0,0.0,97,0.00,,,0.00,Wunderground v.1.15,2013-08-19 07:38:00,
2013-08-19 03:40:00,62.1,61.2,30.24,South,177,0.0,0.0,97,0.00,,,0.00,Wunderground v.1.15,2013-08-19 07:40:00,
2013-08-19 03:41:00,62.1,61.2,30.25,South,177,0.0,0.0,97,0.00,,,0.00,Wunderground v.1.15,2013-08-19 07:41:00,
2013-08-19 03:43:00,62.1,61.2,30.25,South,177,0.0,0.0,97,0.00,,,0.00,Wunderground v.1.15,2013-08-19 07:43:00,
2013-08-19 03:45:00,62.2,61.3,30.25,South,177,0.0,0.0,97,0.00,,,0.00,Wunderground v.1.15,2013-08-19 07:45:00,
2013-08-19 03:46:00,62.2,61.3,30.24,South,177,0.0,0.0,97,0.00,,,0.00,Wunderground v.1.15,2013-08-19 07:46:00,
2013-08-19 03:47:00,62.2,61.3,30.24,South,177,0.0,0.0,97,0.00,,,0.00,Wunderground v.1.15,2013-08-19 07:47:00,
2013-08-19 03:49:00,62.2,61.3,30.24,South,177,0.0,0.0,97,0.00,,,0.00,Wunderground v.1.15,2013-08-19 07:49:00,
2013-08-19 03:50:00,62.2,61.3,30.24,South,177,0.0,0.0,97,0.00,,,0.00,Wunderground v.1.15,2013-08-19 07:50:00,
2013-08-19 03:52:00,62.2,61.3,30.24,South,177,0.0,0.0,97,0.00,,,0.00,Wunderground v.1.15,2013-08-19 07:52:00,
2013-08-19 03:53:00,62.2,61.3,30.24,South,177,0.0,0.0,97,0.00,,,0.00,Wunderground v.1.15,2013-08-19 07:53:00,
2013-08-19 03:54:00,62.2,61.3,30.24,South,177,0.0,0.0,97,0.00,,,0.00,Wunderground v.1.15,2013-08-19 07:54:00,
2013-08-19 03:56:00,62.2,61.3,30.25,South,177,0.0,0.0,97,0.00,,,0.00,Wunderground v.1.15,2013-08-19 07:56:00,
2013-08-19 03:57:00,62.2,61.3,30.25,South,177,0.0,0.0,97,0.00,,,0.00,Wunderground v.1.15,2013-08-19 07:57:00,
2013-08-19 03:58:00,62.2,61.3,30.25,South,177,0.0,0.0,97,0.00,,,0.00,Wunderground v.1.15,2013-08-19 07:58:00,
2013-08-19 03:59:00,62.2,61.3,30.25,South,177,0.0,0.0,97,0.00,,,0.00,Wunderground v.1.15,2013-08-19 07:59:00,
2013-08-19 04:01:00,62.2,61.3,30.24,South,177,0.0,0.0,97,0.00,,,0.00,Wunderground v.1.15,2013-08-19 08:01:00,
2013-08-19 04:02:00,62.2,61.3,30.24,South,177,0.0,0.0,97,0.00,,,0.00,Wunderground v.1.15,2013-08-19 08:02:00,
2013-08-19 04:03:00,62.2,61.3,30.24,South,177,0.0,0.0,97,0.00,,,0.00,Wunderground v.1.15,2013-08-19 08:03:00,
2013-08-19 04:04:00,62.2,61.3,30.24,South,177,0.0,0.0,97,0.00,,,0.00,Wunderground v.1.15,2013-08-19 08:04:00,
2013-08-19 04:07:00,62.2,61.3,30.24,South,177,0.0,0.0,97,0.00,,,0.00,Wunderground v.1.15,2013-08-19 08:07:00,
2013-08-19 04:08:00,62.2,61.3,30.24,South,177,0.0,0.0,97,0.00,,,0.00,Wunderground v.1.15,2013-08-19 08:08:00,
2013-08-19 04:09:00,62.2,61.3,30.24,South,177,0.0,0.0,97,0.00,,,0.00,Wunderground v.1.15,2013-08-19 08:09:00,
2013-08-19 04:12:00,62.3,61.7,30.24,South,177,1.0,1.0,98,0.00,,,0.00,Wunderground v.1.15,2013-08-19 08:12:00,
2013-08-19 04:13:00,62.3,61.7,30.24,South,177,0.0,1.0,98,0.00,,,0.00,Wunderground v.1.15,2013-08-19 08:13:00,
2013-08-19 04:14:00,62.3,61.7,30.24,South,177,0.0,1.0,98,0.00,,,0.00,Wunderground v.1.15,2013-08-19 08:14:00,
2013-08-19 04:15:00,62.3,61.7,30.24,South,177,1.0,1.0,98,0.00,,,0.00,Wunderground v.1.15,2013-08-19 08:15:00,
2013-08-19 04:17:00,62.4,61.8,30.24,South,177,0.0,1.0,98,0.00,,,0.00,Wunderground v.1.15,2013-08-19 08:17:00,
2013-08-19 04:18:00,62.4,61.5,30.24,South,177,0.0,1.0,97,0.00,,,0.00,Wunderground v.1.15,2013-08-19 08:18:00,
2013-08-19 04:19:00,62.4,61.8,30.25,South,177,0.0,1.0,98,0.00,,,0.00,Wunderground v.1.15,2013-08-19 08:19:00,
2013-08-19 04:20:00,62.4,61.5,30.24,South,177,0.0,0.0,97,0.00,,,0.00,Wunderground v.1.15,2013-08-19 08:20:00,
2013-08-19 04:23:00,62.4,61.5,30.24,South,177,0.0,0.0,97,0.00,,,0.00,Wunderground v.1.15,2013-08-19 08:23:00,
2013-08-19 04:24:00,62.4,61.5,30.24,South,177,0.0,0.0,97,0.00,,,0.00,Wunderground v.1.15,2013-08-19 08:24:00,
2013-08-19 04:25:00,62.4,61.5,30.25,South,177,0.0,0.0,97,0.00,,,0.00,Wunderground v.1.15,2013-08-19 08:25:00,
2013-08-19 04:29:00,62.4,61.8,30.25,South,177,0.0,0.0,98,0.00,,,0.00,Wunderground v.1.15,2013-08-19 08:29:00,
2013-08-19 04:30:00,62.5,61.6,30.24,South,177,0.0,0.0,97,0.00,,,0.00,Wunderground v.1.15,2013-08-19 08:30:00,
2013-08-19 04:34:00,62.4,61.5,30.24,South,177,0.0,0.0,97,0.00,,,0.00,Wunderground v.1.15,2013-08-19 08:34:00,
2013-08-19 04:35:00,62.4,61.5,30.24,South,177,0.0,0.0,97,0.00,,,0.00,Wunderground v.1.15,2013-08-19 08:35:00,
2013-08-19 04:36:00,62.4,61.5,30.24,South,177,0.0,0.0,97,0.00,,,0.00,Wunderground v.1.15,2013-08-19 08:36:00,
2013-08-19 04:39:00,62.4,61.5,30.24,South,177,0.0,0.0,97,0.00,,,0.00,Wunderground v.1.15,2013-08-19 08:39:00,
2013-08-19 04:40:00,62.4,61.5,30.24,South,177,0.0,0.0,97,0.00,,,0.00,Wunderground v.1.15,2013-08-19 08:40:00,
2013-08-19 04:41:00,62.4,61.5,30.24,South,177,0.0,0.0,97,0.00,,,0.00,Wunderground v.1.15,2013-08-19 08:41:00,
2013-08-19 04:44:00,62.4,61.5,30.24,South,177,0.0,1.0,97,0.00,,,0.00,Wunderground v.1.15,2013-08-19 08:44:00,
2013-08-19 04:45:00,62.4,61.5,30.24,South,177,0.0,1.0,97,0.00,,,0.00,Wunderground v.1.15,2013-08-19 08:45:00,
2013-08-19 04:47:00,62.4,61.5,30.24,South,177,0.0,1.0,97,0.00,,,0.00,Wunderground v.1.15,2013-08-19 08:47:00,
2013-08-19 04:49:00,62.5,61.6,30.24,South,177,0.0,1.0,97,0.00,,,0.00,Wunderground v.1.15,2013-08-19 08:49:00,
2013-08-19 04:50:00,62.5,61.9,30.24,South,177,0.0,0.0,98,0.00,,,0.00,Wunderground v.1.15,2013-08-19 08:50:00,
2013-08-19 04:51:00,62.5,61.6,30.24,South,177,0.0,0.0,97,0.00,,,0.00,Wunderground v.1.15,2013-08-19 08:51:00,
2013-08-19 04:52:00,62.5,61.6,30.24,South,177,0.0,0.0,97,0.00,,,0.00,Wunderground v.1.15,2013-08-19 08:52:00,
2013-08-19 04:55:00,62.5,61.6,30.24,South,177,0.0,0.0,97,0.00,,,0.00,Wunderground v.1.15,2013-08-19 08:55:00,
2013-08-19 04:56:00,62.5,61.6,30.24,South,177,0.0,0.0,97,0.00,,,0.00,Wunderground v.1.15,2013-08-19 08:56:00,
2013-08-19 04:58:00,62.5,61.6,30.24,South,177,0.0,0.0,97,0.00,,,0.00,Wunderground v.1.15,2013-08-19 08:58:00,
2013-08-19 05:00:00,62.5,61.6,30.24,South,177,0.0,0.0,97,0.00,,,0.00,Wunderground v.1.15,2013-08-19 09:00:00,
2013-08-19 05:01:00,62.5,61.6,30.24,South,177,0.0,0.0,97,0.00,,,0.00,Wunderground v.1.15,2013-08-19 09:01:00,
2013-08-19 05:03:00,62.5,61.6,30.24,South,177,0.0,1.0,97,0.00,,,0.00,Wunderground v.1.15,2013-08-19 09:03:00,
2013-08-19 05:05:00,62.5,61.6,30.24,South,177,0.0,1.0,97,0.00,,,0.00,Wunderground v.1.15,2013-08-19 09:05:00,
2013-08-19 05:07:00,62.5,61.6,30.24,South,177,0.0,1.0,97,0.00,,,0.00,Wunderground v.1.15,2013-08-19 09:07:00,
2013-08-19 05:08:00,62.5,61.6,30.24,South,177,0.0,1.0,97,0.00,,,0.00,Wunderground v.1.15,2013-08-19 09:08:00,
2013-08-19 05:10:00,62.5,61.6,30.24,South,177,0.0,0.0,97,0.00,,,0.00,Wunderground v.1.15,2013-08-19 09:10:00,
2013-08-19 05:11:00,62.5,61.6,30.24,South,177,0.0,0.0,97,0.00,,,0.00,Wunderground v.1.15,2013-08-19 09:11:00,
2013-08-19 05:12:00,62.5,61.6,30.24,South,177,0.0,0.0,97,0.00,,,0.00,Wunderground v.1.15,2013-08-19 09:12:00,
2013-08-19 05:13:00,62.5,61.6,30.24,South,177,0.0,0.0,97,0.00,,,0.00,Wunderground v.1.15,2013-08-19 09:13:00,
2013-08-19 05:15:00,62.5,61.6,30.24,South,177,0.0,1.0,97,0.00,,,0.00,Wunderground v.1.15,2013-08-19 09:15:00,
2013-08-19 05:16:00,62.5,61.6,30.24,South,177,0.0,1.0,97,0.00,,,0.00,Wunderground v.1.15,2013-08-19 09:16:00,
2013-08-19 05:17:00,62.5,61.6,30.24,South,177,0.0,1.0,97,0.00,,,0.00,Wunderground v.1.15,2013-08-19 09:17:00,
2013-08-19 05:18:00,62.5,61.6,30.24,South,177,0.0,2.0,97,0.00,,,0.00,Wunderground v.1.15,2013-08-19 09:18:00,
2013-08-19 05:20:00,62.5,61.6,30.24,South,177,0.0,0.0,97,0.00,,,0.00,Wunderground v.1.15,2013-08-19 09:20:00,
2013-08-19 05:21:00,62.5,61.6,30.24,South,177,0.0,0.0,97,0.00,,,0.00,Wunderground v.1.15,2013-08-19 09:21:00,
2013-08-19 05:22:00,62.5,61.6,30.24,South,177,0.0,0.0,97,0.00,,,0.00,Wunderground v.1.15,2013-08-19 09:22:00,
2013-08-19 05:24:00,62.5,61.6,30.24,South,177,0.0,1.0,97,0.00,,,0.00,Wunderground v.1.15,2013-08-19 09:24:00,
2013-08-19 05:25:00,62.5,61.6,30.24,South,176,2.0,2.0,97,0.00,,,0.00,Wunderground v.1.15,2013-08-19 09:25:00,
2013-08-19 05:26:00,62.5,61.6,30.24,South,176,1.0,2.0,97,0.00,,,0.00,Wunderground v.1.15,2013-08-19 09:26:00,
2013-08-19 05:27:00,62.5,61.6,30.24,South,176,1.0,2.0,97,0.00,,,0.00,Wunderground v.1.15,2013-08-19 09:27:00,
2013-08-19 05:30:00,62.5,61.6,30.24,South,176,1.0,1.0,97,0.00,,,0.00,Wunderground v.1.15,2013-08-19 09:30:00,
2013-08-19 05:31:00,62.5,61.6,30.24,South,176,1.0,2.0,97,0.00,,,0.00,Wunderground v.1.15,2013-08-19 09:31:00,
2013-08-19 05:32:00,62.5,61.6,30.25,South,176,0.0,2.0,97,0.00,,,0.00,Wunderground v.1.15,2013-08-19 09:32:00,
2013-08-19 05:35:00,62.5,61.6,30.24,South,176,0.0,2.0,97,0.00,,,0.00,Wunderground v.1.15,2013-08-19 09:35:00,
2013-08-19 05:36:00,62.5,61.6,30.24,South,176,0.0,2.0,97,0.00,,,0.00,Wunderground v.1.15,2013-08-19 09:36:00,
2013-08-19 05:37:00,62.5,61.6,30.25,South,176,0.0,2.0,97,0.00,,,0.00,Wunderground v.1.15,2013-08-19 09:37:00,
2013-08-19 05:38:00,62.5,61.6,30.25,South,176,0.0,2.0,97,0.00,,,0.00,Wunderground v.1.15,2013-08-19 09:38:00,
2013-08-19 05:41:00,62.5,61.6,30.24,South,175,1.0,2.0,97,0.00,,,0.00,Wunderground v.1.15,2013-08-19 09:41:00,
2013-08-19 05:42:00,62.5,61.6,30.24,South,175,0.0,2.0,97,0.00,,,0.00,Wunderground v.1.15,2013-08-19 09:42:00,
2013-08-19 05:43:00,62.5,61.6,30.24,South,175,0.0,2.0,97,0.00,,,0.00,Wunderground v.1.15,2013-08-19 09:43:00,
2013-08-19 05:46:00,62.5,61.6,30.24,South,175,0.0,2.0,97,0.00,,,0.00,Wunderground v.1.15,2013-08-19 09:46:00,
2013-08-19 05:47:00,62.5,61.6,30.24,South,175,1.0,2.0,97,0.00,,,0.00,Wunderground v.1.15,2013-08-19 09:47:00,
2013-08-19 05:48:00,62.5,61.6,30.24,South,175,0.0,2.0,97,0.00,,,0.00,Wunderground v.1.15,2013-08-19 09:48:00,
2013-08-19 05:51:00,62.5,61.6,30.24,South,173,2.0,3.0,97,0.00,,,0.00,Wunderground v.1.15,2013-08-19 09:51:00,
2013-08-19 05:52:00,62.5,61.6,30.24,South,173,2.0,3.0,97,0.00,,,0.00,Wunderground v.1.15,2013-08-19 09:52:00,
2013-08-19 05:54:00,62.5,61.6,30.24,SSE,167,2.0,3.0,97,0.00,,,0.00,Wunderground v.1.15,2013-08-19 09:54:00,
2013-08-19 05:56:00,62.6,61.7,30.25,South,169,1.0,3.0,97,0.00,,,0.00,Wunderground v.1.15,2013-08-19 09:56:00,
2013-08-19 05:57:00,62.6,61.7,30.25,South,187,3.0,4.0,97,0.00,,,0.00,Wunderground v.1.15,2013-08-19 09:57:00,
2013-08-19 06:00:00,62.6,61.7,30.25,South,187,1.0,1.0,97,0.00,,,0.00,Wunderground v.1.15,2013-08-19 10:00:00,
2013-08-19 06:02:00,62.6,61.7,30.25,South,169,2.0,3.0,97,0.00,,,0.00,Wunderground v.1.15,2013-08-19 10:02:00,
2013-08-19 06:03:00,62.7,61.8,30.25,SSE,160,3.0,4.0,97,0.00,,,0.00,Wunderground v.1.15,2013-08-19 10:03:00,
2013-08-19 06:05:00,62.7,62.1,30.25,SSE,167,1.0,4.0,98,0.00,,,0.00,Wunderground v.1.15,2013-08-19 10:05:00,
2013-08-19 06:07:00,62.7,62.1,30.24,SSE,167,2.0,4.0,98,0.00,,,0.00,Wunderground v.1.15,2013-08-19 10:07:00,
2013-08-19 06:08:00,62.7,62.1,30.24,SSE,167,2.0,4.0,98,0.00,,,0.00,Wunderground v.1.15,2013-08-19 10:08:00,
2013-08-19 06:11:00,62.8,62.2,30.25,South,169,0.0,3.0,98,0.00,,,0.00,Wunderground v.1.15,2013-08-19 10:11:00,
2013-08-19 06:12:00,62.8,62.2,30.25,South,169,0.0,3.0,98,0.00,,,0.00,Wunderground v.1.15,2013-08-19 10:12:00,
2013-08-19 06:13:00,62.8,62.2,30.25,South,169,0.0,3.0,98,0.00,,,0.00,Wunderground v.1.15,2013-08-19 10:13:00,
2013-08-19 06:14:00,62.8,62.2,30.25,South,169,0.0,3.0,98,0.00,,,0.00,Wunderground v.1.15,2013-08-19 10:14:00,
2013-08-19 06:16:00,62.8,62.2,30.25,South,169,0.0,3.0,98,0.00,,,0.00,Wunderground v.1.15,2013-08-19 10:16:00,
2013-08-19 06:17:00,62.9,62.3,30.25,South,169,0.0,3.0,98,0.00,,,0.00,Wunderground v.1.15,2013-08-19 10:17:00,
2013-08-19 06:18:00,62.9,62.3,30.25,South,169,0.0,3.0,98,0.00,,,0.00,Wunderground v.1.15,2013-08-19 10:18:00,
2013-08-19 06:19:00,62.9,62.3,30.24,South,169,0.0,3.0,98,0.00,,,0.00,Wunderground v.1.15,2013-08-19 10:19:00,
2013-08-19 06:21:00,62.9,62.3,30.25,South,169,0.0,2.0,98,0.00,,,0.00,Wunderground v.1.15,2013-08-19 10:21:00,
2013-08-19 06:22:00,62.9,62.3,30.25,South,169,0.0,2.0,98,0.00,,,0.00,Wunderground v.1.15,2013-08-19 10:22:00,
2013-08-19 06:23:00,62.9,62.3,30.25,South,169,0.0,2.0,98,0.00,,,0.00,Wunderground v.1.15,2013-08-19 10:23:00,
2013-08-19 06:24:00,62.9,62.3,30.25,South,169,0.0,2.0,98,0.00,,,0.00,Wunderground v.1.15,2013-08-19 10:24:00,
2013-08-19 06:26:00,62.9,62.3,30.25,South,169,0.0,2.0,98,0.00,,,0.00,Wunderground v.1.15,2013-08-19 10:26:00,
2013-08-19 06:27:00,62.9,62.3,30.24,South,169,0.0,2.0,98,0.00,,,0.00,Wunderground v.1.15,2013-08-19 10:27:00,
2013-08-19 06:28:00,62.9,62.3,30.25,South,169,0.0,2.0,98,0.00,,,0.00,Wunderground v.1.15,2013-08-19 10:28:00,
2013-08-19 06:30:00,62.9,62.3,30.25,South,169,0.0,0.0,98,0.00,,,0.00,Wunderground v.1.15,2013-08-19 10:30:00,
2013-08-19 06:32:00,62.9,62.3,30.24,South,169,0.0,0.0,98,0.00,,,0.00,Wunderground v.1.15,2013-08-19 10:32:00,
2013-08-19 06:33:00,62.9,62.3,30.24,South,169,0.0,0.0,98,0.00,,,0.00,Wunderground v.1.15,2013-08-19 10:33:00,
2013-08-19 06:34:00,62.9,62.3,30.24,South,169,0.0,0.0,98,0.00,,,0.00,Wunderground v.1.15,2013-08-19 10:34:00,
2013-08-19 06:35:00,62.9,62.3,30.24,South,169,0.0,0.0,98,0.00,,,0.00,Wunderground v.1.15,2013-08-19 10:35:00,
2013-08-19 06:37:00,62.9,62.3,30.24,South,169,0.0,0.0,98,0.00,,,0.00,Wunderground v.1.15,2013-08-19 10:37:00,
2013-08-19 06:38:00,62.9,62.3,30.24,South,169,0.0,0.0,98,0.00,,,0.00,Wunderground v.1.15,2013-08-19 10:38:00,
2013-08-19 06:39:00,63.0,62.4,30.25,South,169,1.0,1.0,98,0.00,,,0.00,Wunderground v.1.15,2013-08-19 10:39:00,
2013-08-19 06:40:00,62.9,62.0,30.25,South,169,0.0,0.0,97,0.00,,,0.00,Wunderground v.1.15,2013-08-19 10:40:00,
2013-08-19 06:43:00,62.9,62.3,30.25,SW,215,0.0,1.0,98,0.00,,,0.00,Wunderground v.1.15,2013-08-19 10:43:00,
2013-08-19 06:44:00,62.9,62.3,30.25,WSW,238,0.0,1.0,98,0.00,,,0.00,Wunderground v.1.15,2013-08-19 10:44:00,
2013-08-19 06:45:00,62.9,62.3,30.25,WSW,238,0.0,1.0,98,0.00,,,0.00,Wunderground v.1.15,2013-08-19 10:45:00,
2013-08-19 06:48:00,62.9,62.3,30.25,WSW,238,0.0,1.0,98,0.00,,,0.00,Wunderground v.1.15,2013-08-19 10:48:00,
2013-08-19 06:49:00,62.9,62.0,30.25,WSW,238,0.0,1.0,97,0.00,,,0.01,Wunderground v.1.15,2013-08-19 10:49:00,
2013-08-19 06:51:00,62.8,61.9,30.25,WSW,238,0.0,0.0,97,0.00,,,0.01,Wunderground v.1.15,2013-08-19 10:51:00,
2013-08-19 06:53:00,62.8,61.9,30.25,WSW,238,0.0,0.0,97,0.00,,,0.01,Wunderground v.1.15,2013-08-19 10:53:00,
2013-08-19 06:54:00,62.7,61.8,30.25,WSW,238,0.0,0.0,97,0.00,,,0.01,Wunderground v.1.15,2013-08-19 10:54:00,
2013-08-19 06:55:00,62.7,61.8,30.25,WSW,238,0.0,0.0,97,0.00,,,0.01,Wunderground v.1.15,2013-08-19 10:55:00,
2013-08-19 06:56:00,62.7,61.8,30.25,WSW,238,0.0,0.0,97,0.00,,,0.01,Wunderground v.1.15,2013-08-19 10:56:00,
2013-08-19 06:58:00,62.7,61.8,30.25,WSW,238,0.0,0.0,97,0.00,,,0.01,Wunderground v.1.15,2013-08-19 10:58:00,
2013-08-19 06:59:00,62.7,61.8,30.25,WSW,238,0.0,0.0,97,0.00,,,0.01,Wunderground v.1.15,2013-08-19 10:59:00,
2013-08-19 07:00:00,62.7,61.8,30.25,WSW,238,0.0,0.0,97,0.00,,,0.01,Wunderground v.1.15,2013-08-19 11:00:00,
2013-08-19 07:01:00,62.7,61.8,30.25,WSW,238,0.0,0.0,97,0.00,,,0.01,Wunderground v.1.15,2013-08-19 11:01:00,
2013-08-19 07:03:00,62.7,61.8,30.25,WSW,238,0.0,0.0,97,0.00,,,0.01,Wunderground v.1.15,2013-08-19 11:03:00,
2013-08-19 07:05:00,62.7,62.1,30.25,WSW,238,0.0,0.0,98,0.00,,,0.01,Wunderground v.1.15,2013-08-19 11:05:00,
2013-08-19 07:06:00,62.7,62.1,30.25,WSW,238,0.0,0.0,98,0.00,,,0.01,Wunderground v.1.15,2013-08-19 11:06:00,
2013-08-19 07:09:00,62.7,62.1,30.25,WSW,238,0.0,0.0,98,0.00,,,0.01,Wunderground v.1.15,2013-08-19 11:09:00,
2013-08-19 07:10:00,62.7,62.1,30.25,WSW,238,0.0,0.0,98,0.00,,,0.01,Wunderground v.1.15,2013-08-19 11:10:00,
2013-08-19 07:11:00,62.7,62.1,30.25,WSW,238,0.0,0.0,98,0.00,,,0.01,Wunderground v.1.15,2013-08-19 11:11:00,
2013-08-19 07:14:00,62.8,62.2,30.25,WSW,238,0.0,0.0,98,0.00,,,0.01,Wunderground v.1.15,2013-08-19 11:14:00,
2013-08-19 07:15:00,62.7,62.1,30.25,WSW,238,0.0,0.0,98,0.00,,,0.01,Wunderground v.1.15,2013-08-19 11:15:00,
2013-08-19 07:16:00,62.8,62.2,30.24,WSW,238,0.0,0.0,98,0.00,,,0.01,Wunderground v.1.15,2013-08-19 11:16:00,
2013-08-19 07:17:00,62.8,62.2,30.25,WSW,238,0.0,0.0,98,0.00,,,0.01,Wunderground v.1.15,2013-08-19 11:17:00,
2013-08-19 07:19:00,62.8,62.2,30.25,WSW,238,0.0,0.0,98,0.00,,,0.01,Wunderground v.1.15,2013-08-19 11:19:00,
2013-08-19 07:20:00,62.8,62.2,30.25,WSW,238,0.0,0.0,98,0.00,,,0.01,Wunderground v.1.15,2013-08-19 11:20:00,
2013-08-19 07:21:00,62.8,62.2,30.24,WSW,238,0.0,1.0,98,0.00,,,0.01,Wunderground v.1.15,2013-08-19 11:21:00,
2013-08-19 07:22:00,62.8,62.2,30.24,WSW,238,0.0,1.0,98,0.00,,,0.01,Wunderground v.1.15,2013-08-19 11:22:00,
2013-08-19 07:24:00,62.8,62.2,30.24,WSW,238,0.0,1.0,98,0.00,,,0.01,Wunderground v.1.15,2013-08-19 11:24:00,
2013-08-19 07:26:00,62.9,62.3,30.24,WSW,238,0.0,1.0,98,0.00,,,0.01,Wunderground v.1.15,2013-08-19 11:26:00,
2013-08-19 07:27:00,62.9,62.3,30.24,WSW,238,0.0,1.0,98,0.00,,,0.01,Wunderground v.1.15,2013-08-19 11:27:00,
2013-08-19 07:30:00,62.9,62.3,30.24,WSW,238,0.0,0.0,98,0.00,,,0.01,Wunderground v.1.15,2013-08-19 11:30:00,
2013-08-19 07:31:00,62.9,62.3,30.24,WSW,238,0.0,1.0,98,0.00,,,0.01,Wunderground v.1.15,2013-08-19 11:31:00,
2013-08-19 07:33:00,63.0,62.4,30.23,WSW,238,0.0,1.0,98,0.00,,,0.01,Wunderground v.1.15,2013-08-19 11:33:00,
2013-08-19 07:35:00,63.0,62.4,30.23,WSW,238,0.0,1.0,98,0.00,,,0.01,Wunderground v.1.15,2013-08-19 11:35:00,
2013-08-19 07:36:00,63.0,62.4,30.23,WSW,238,0.0,1.0,98,0.00,,,0.01,Wunderground v.1.15,2013-08-19 11:36:00,
2013-08-19 07:39:00,63.1,62.5,30.23,WSW,238,0.0,1.0,98,0.00,,,0.01,Wunderground v.1.15,2013-08-19 11:39:00,
2013-08-19 07:40:00,63.1,62.5,30.23,WSW,238,0.0,0.0,98,0.00,,,0.01,Wunderground v.1.15,2013-08-19 11:40:00,
2013-08-19 07:41:00,63.1,62.5,30.23,WSW,238,0.0,0.0,98,0.00,,,0.01,Wunderground v.1.15,2013-08-19 11:41:00,
2013-08-19 07:42:00,63.1,62.5,30.23,WSW,238,0.0,0.0,98,0.00,,,0.01,Wunderground v.1.15,2013-08-19 11:42:00,
2013-08-19 07:44:00,63.1,62.5,30.23,WSW,238,0.0,0.0,98,0.00,,,0.01,Wunderground v.1.15,2013-08-19 11:44:00,
2013-08-19 07:45:00,63.2,62.6,30.23,WSW,238,0.0,0.0,98,0.00,,,0.01,Wunderground v.1.15,2013-08-19 11:45:00,
2013-08-19 07:46:00,63.1,62.5,30.23,WSW,238,0.0,0.0,98,0.00,,,0.01,Wunderground v.1.15,2013-08-19 11:46:00,
2013-08-19 07:47:00,63.2,62.6,30.23,WSW,238,0.0,0.0,98,0.00,,,0.01,Wunderground v.1.15,2013-08-19 11:47:00,
2013-08-19 07:49:00,63.2,62.6,30.23,WSW,238,1.0,1.0,98,0.00,,,0.01,Wunderground v.1.15,2013-08-19 11:49:00,
2013-08-19 07:50:00,63.2,62.6,30.23,WSW,238,0.0,1.0,98,0.00,,,0.01,Wunderground v.1.15,2013-08-19 11:50:00,
2013-08-19 07:51:00,63.2,62.6,30.23,WSW,238,1.0,1.0,98,0.00,,,0.01,Wunderground v.1.15,2013-08-19 11:51:00,
2013-08-19 07:52:00,63.2,62.6,30.23,WSW,238,0.0,2.0,98,0.00,,,0.01,Wunderground v.1.15,2013-08-19 11:52:00,
2013-08-19 07:54:00,63.2,62.6,30.23,NNW,331,2.0,3.0,98,0.00,,,0.01,Wunderground v.1.15,2013-08-19 11:54:00,
2013-08-19 07:56:00,63.2,62.6,30.23,NW,306,2.0,3.0,98,0.00,,,0.01,Wunderground v.1.15,2013-08-19 11:56:00,
2013-08-19 07:57:00,63.2,62.6,30.23,NW,306,0.0,3.0,98,0.00,,,0.01,Wunderground v.1.15,2013-08-19 11:57:00,
2013-08-19 07:58:00,63.2,62.6,30.23,NW,306,0.0,3.0,98,0.00,,,0.01,Wunderground v.1.15,2013-08-19 11:58:00,
2013-08-19 07:59:00,63.2,62.6,30.23,NW,306,0.0,3.0,98,0.00,,,0.01,Wunderground v.1.15,2013-08-19 11:59:00,
2013-08-19 08:01:00,63.2,62.6,30.23,NW,306,0.0,1.0,98,0.00,,,0.01,Wunderground v.1.15,2013-08-19 12:01:00,
2013-08-19 08:03:00,63.2,62.6,30.23,NW,306,0.0,1.0,98,0.00,,,0.01,Wunderground v.1.15,2013-08-19 12:03:00,
2013-08-19 08:04:00,63.2,62.6,30.23,NW,306,0.0,1.0,98,0.00,,,0.01,Wunderground v.1.15,2013-08-19 12:04:00,
2013-08-19 08:07:00,63.2,62.6,30.24,NW,306,0.0,1.0,98,0.00,,,0.01,Wunderground v.1.15,2013-08-19 12:07:00,
2013-08-19 08:08:00,63.2,62.6,30.24,NW,306,0.0,1.0,98,0.00,,,0.01,Wunderground v.1.15,2013-08-19 12:08:00,
2013-08-19 08:09:00,63.2,62.3,30.24,West,266,0.0,1.0,97,0.00,,,0.01,Wunderground v.1.15,2013-08-19 12:09:00,
2013-08-19 08:10:00,63.2,62.6,30.24,West,266,0.0,0.0,98,0.00,,,0.01,Wunderground v.1.15,2013-08-19 12:10:00,
2013-08-19 08:12:00,63.2,62.3,30.24,West,266,1.0,1.0,97,0.00,,,0.01,Wunderground v.1.15,2013-08-19 12:12:00,
2013-08-19 08:13:00,63.1,62.2,30.23,West,266,0.0,2.0,97,0.00,,,0.01,Wunderground v.1.15,2013-08-19 12:13:00,
2013-08-19 08:14:00,63.1,62.2,30.23,West,266,0.0,2.0,97,0.00,,,0.01,Wunderground v.1.15,2013-08-19 12:14:00,
2013-08-19 08:15:00,63.1,62.2,30.23,West,266,0.0,2.0,97,0.00,,,0.01,Wunderground v.1.15,2013-08-19 12:15:00,
2013-08-19 08:17:00,63.0,62.1,30.23,West,266,0.0,2.0,97,0.00,,,0.01,Wunderground v.1.15,2013-08-19 12:17:00,
2013-08-19 08:18:00,63.0,62.1,30.23,West,266,0.0,2.0,97,0.00,,,0.01,Wunderground v.1.15,2013-08-19 12:18:00,
2013-08-19 08:19:00,63.0,62.1,30.23,West,266,0.0,2.0,97,0.00,,,0.01,Wunderground v.1.15,2013-08-19 12:19:00,
2013-08-19 08:20:00,63.0,62.1,30.23,West,266,0.0,0.0,97,0.00,,,0.01,Wunderground v.1.15,2013-08-19 12:20:00,
2013-08-19 08:22:00,63.0,62.1,30.23,West,266,0.0,0.0,97,0.00,,,0.01,Wunderground v.1.15,2013-08-19 12:22:00,
2013-08-19 08:24:00,63.0,62.1,30.23,West,266,0.0,0.0,97,0.00,,,0.01,Wunderground v.1.15,2013-08-19 12:24:00,
2013-08-19 08:25:00,63.1,62.2,30.23,West,266,0.0,1.0,97,0.00,,,0.01,Wunderground v.1.15,2013-08-19 12:25:00,
2013-08-19 08:27:00,63.1,62.2,30.23,West,266,0.0,1.0,97,0.00,,,0.01,Wunderground v.1.15,2013-08-19 12:27:00,
2013-08-19 08:29:00,63.1,62.5,30.23,West,266,0.0,1.0,98,0.00,,,0.01,Wunderground v.1.15,2013-08-19 12:29:00,
2013-08-19 08:30:00,63.2,62.6,30.23,West,266,0.0,0.0,98,0.00,,,0.01,Wunderground v.1.15,2013-08-19 12:30:00,
2013-08-19 08:32:00,63.3,62.7,30.23,West,266,0.0,0.0,98,0.00,,,0.01,Wunderground v.1.15,2013-08-19 12:32:00,
2013-08-19 08:34:00,63.3,62.7,30.23,West,266,0.0,0.0,98,0.00,,,0.01,Wunderground v.1.15,2013-08-19 12:34:00,
2013-08-19 08:35:00,63.3,62.7,30.23,West,266,0.0,0.0,98,0.00,,,0.01,Wunderground v.1.15,2013-08-19 12:35:00,
2013-08-19 08:37:00,63.4,62.8,30.23,West,266,0.0,0.0,98,0.00,,,0.01,Wunderground v.1.15,2013-08-19 12:37:00,
2013-08-19 08:39:00,63.4,62.8,30.24,West,266,1.0,1.0,98,0.00,,,0.01,Wunderground v.1.15,2013-08-19 12:39:00,
2013-08-19 08:40:00,63.4,62.8,30.24,West,266,1.0,1.0,98,0.00,,,0.01,Wunderground v.1.15,2013-08-19 12:40:00,
2013-08-19 08:41:00,63.5,62.9,30.24,West,266,1.0,1.0,98,0.00,,,0.01,Wunderground v.1.15,2013-08-19 12:41:00,
2013-08-19 08:43:00,63.4,62.8,30.24,West,266,0.0,1.0,98,0.00,,,0.01,Wunderground v.1.15,2013-08-19 12:43:00,
2013-08-19 08:45:00,63.4,62.8,30.24,West,266,0.0,1.0,98,0.00,,,0.01,Wunderground v.1.15,2013-08-19 12:45:00,
2013-08-19 08:46:00,63.4,62.8,30.24,West,266,0.0,1.0,98,0.00,,,0.01,Wunderground v.1.15,2013-08-19 12:46:00,
2013-08-19 08:49:00,63.5,62.9,30.24,West,266,0.0,1.0,98,0.00,,,0.01,Wunderground v.1.15,2013-08-19 12:49:00,
2013-08-19 08:50:00,63.5,62.9,30.24,West,266,0.0,0.0,98,0.00,,,0.01,Wunderground v.1.15,2013-08-19 12:50:00,
2013-08-19 08:51:00,63.6,63.0,30.24,West,266,0.0,0.0,98,0.00,,,0.01,Wunderground v.1.15,2013-08-19 12:51:00,
2013-08-19 08:54:00,63.7,63.1,30.24,West,267,0.0,1.0,98,0.00,,,0.01,Wunderground v.1.15,2013-08-19 12:54:00,
2013-08-19 08:55:00,63.8,63.2,30.24,West,267,2.0,2.0,98,0.00,,,0.01,Wunderground v.1.15,2013-08-19 12:55:00,
2013-08-19 08:56:00,63.8,63.2,30.24,West,267,1.0,2.0,98,0.00,,,0.01,Wunderground v.1.15,2013-08-19 12:56:00,
2013-08-19 08:59:00,63.8,63.2,30.24,West,267,0.0,2.0,98,0.00,,,0.01,Wunderground v.1.15,2013-08-19 12:59:00,
2013-08-19 09:00:00,63.8,63.2,30.24,West,267,1.0,1.0,98,0.00,,,0.01,Wunderground v.1.15,2013-08-19 13:00:00,
2013-08-19 09:01:00,63.9,63.3,30.24,West,267,0.0,1.0,98,0.00,,,0.01,Wunderground v.1.15,2013-08-19 13:01:00,
2013-08-19 09:02:00,63.9,63.3,30.24,West,267,0.0,1.0,98,0.00,,,0.01,Wunderground v.1.15,2013-08-19 13:02:00,
2013-08-19 09:04:00,63.9,63.3,30.24,West,267,0.0,1.0,98,0.00,,,0.01,Wunderground v.1.15,2013-08-19 13:04:00,
2013-08-19 09:05:00,63.9,63.3,30.23,West,267,0.0,1.0,98,0.00,,,0.01,Wunderground v.1.15,2013-08-19 13:05:00,
2013-08-19 09:06:00,64.0,63.4,30.23,West,267,0.0,1.0,98,0.00,,,0.01,Wunderground v.1.15,2013-08-19 13:06:00,
2013-08-19 09:07:00,64.0,63.4,30.23,West,267,0.0,1.0,98,0.00,,,0.01,Wunderground v.1.15,2013-08-19 13:07:00,
2013-08-19 09:10:00,64.0,63.4,30.23,West,267,0.0,0.0,98,0.00,,,0.01,Wunderground v.1.15,2013-08-19 13:10:00,
2013-08-19 09:11:00,64.0,63.4,30.23,West,267,2.0,2.0,98,0.00,,,0.01,Wunderground v.1.15,2013-08-19 13:11:00,
2013-08-19 09:13:00,64.0,63.4,30.23,West,267,1.0,2.0,98,0.00,,,0.01,Wunderground v.1.15,2013-08-19 13:13:00,
2013-08-19 09:15:00,64.0,63.4,30.23,West,267,0.0,3.0,98,0.00,,,0.01,Wunderground v.1.15,2013-08-19 13:15:00,
2013-08-19 09:16:00,64.1,63.5,30.23,West,267,1.0,3.0,98,0.00,,,0.01,Wunderground v.1.15,2013-08-19 13:16:00,
2013-08-19 09:18:00,64.1,63.2,30.23,NNW,344,0.0,3.0,97,0.00,,,0.01,Wunderground v.1.15,2013-08-19 13:18:00,
2013-08-19 09:20:00,64.1,63.2,30.23,NNW,339,1.0,2.0,97,0.00,,,0.01,Wunderground v.1.15,2013-08-19 13:20:00,
2013-08-19 09:21:00,64.1,63.5,30.23,NW,311,1.0,3.0,98,0.00,,,0.01,Wunderground v.1.15,2013-08-19 13:21:00,
2013-08-19 09:23:00,64.2,63.6,30.23,NW,319,0.0,3.0,98,0.00,,,0.01,Wunderground v.1.15,2013-08-19 13:23:00,
2013-08-19 09:25:00,64.3,63.4,30.23,NW,319,0.0,3.0,97,0.00,,,0.01,Wunderground v.1.15,2013-08-19 13:25:00,
2013-08-19 09:26:00,64.3,63.4,30.23,NW,319,0.0,3.0,97,0.00,,,0.01,Wunderground v.1.15,2013-08-19 13:26:00,
2013-08-19 09:28:00,64.4,63.5,30.23,WNW,294,3.0,4.0,97,0.00,,,0.01,Wunderground v.1.15,2013-08-19 13:28:00,
2013-08-19 09:31:00,64.4,63.5,30.23,NW,315,0.0,1.0,97,0.00,,,0.01,Wunderground v.1.15,2013-08-19 13:31:00,
2013-08-19 09:32:00,64.5,63.6,30.23,NE,49,3.0,3.0,97,0.00,,,0.01,Wunderground v.1.15,2013-08-19 13:32:00,
2013-08-19 09:33:00,64.5,63.6,30.23,NW,313,2.0,3.0,97,0.00,,,0.01,Wunderground v.1.15,2013-08-19 13:33:00,
2013-08-19 09:36:00,64.5,63.6,30.23,NW,313,0.0,3.0,97,0.00,,,0.01,Wunderground v.1.15,2013-08-19 13:36:00,
2013-08-19 09:37:00,64.5,63.6,30.23,NW,313,2.0,3.0,97,0.00,,,0.01,Wunderground v.1.15,2013-08-19 13:37:00,
2013-08-19 09:38:00,64.6,63.7,30.23,NW,313,0.0,3.0,97,0.00,,,0.01,Wunderground v.1.15,2013-08-19 13:38:00,
2013-08-19 09:39:00,64.6,63.7,30.23,NW,313,0.0,3.0,97,0.00,,,0.01,Wunderground v.1.15,2013-08-19 13:39:00,
2013-08-19 09:41:00,64.7,63.8,30.23,NW,313,0.0,1.0,97,0.00,,,0.01,Wunderground v.1.15,2013-08-19 13:41:00,
2013-08-19 09:42:00,64.7,63.8,30.23,NW,313,2.0,2.0,97,0.00,,,0.01,Wunderground v.1.15,2013-08-19 13:42:00,
2013-08-19 09:44:00,64.7,63.8,30.24,NW,313,1.0,2.0,97,0.00,,,0.01,Wunderground v.1.15,2013-08-19 13:44:00,
2013-08-19 09:46:00,64.6,63.7,30.24,NW,313,1.0,2.0,97,0.00,,,0.01,Wunderground v.1.15,2013-08-19 13:46:00,
2013-08-19 09:47:00,64.6,63.7,30.24,NW,313,2.0,2.0,97,0.00,,,0.01,Wunderground v.1.15,2013-08-19 13:47:00,
2013-08-19 09:49:00,64.5,63.6,30.23,NW,320,1.0,3.0,97,0.00,,,0.01,Wunderground v.1.15,2013-08-19 13:49:00,
2013-08-19 09:50:00,64.5,63.6,30.23,NW,320,1.0,1.0,97,0.00,,,0.01,Wunderground v.1.15,2013-08-19 13:50:00,
2013-08-19 09:51:00,64.5,63.6,30.23,NW,320,0.0,2.0,97,0.00,,,0.01,Wunderground v.1.15,2013-08-19 13:51:00,
2013-08-19 09:52:00,64.5,63.6,30.23,NW,320,0.0,2.0,97,0.00,,,0.01,Wunderground v.1.15,2013-08-19 13:52:00,
2013-08-19 09:54:00,64.5,63.6,30.23,NW,320,0.0,2.0,97,0.00,,,0.01,Wunderground v.1.15,2013-08-19 13:54:00,
2013-08-19 09:56:00,64.6,63.7,30.23,NW,319,0.0,2.0,97,0.00,,,0.01,Wunderground v.1.15,2013-08-19 13:56:00,
2013-08-19 09:57:00,64.6,63.4,30.23,NW,319,0.0,2.0,96,0.00,,,0.01,Wunderground v.1.15,2013-08-19 13:57:00,
2013-08-19 09:58:00,64.7,63.5,30.23,NW,319,0.0,2.0,96,0.00,,,0.01,Wunderground v.1.15,2013-08-19 13:58:00,
2013-08-19 09:59:00,64.7,63.5,30.24,NW,319,0.0,2.0,96,0.00,,,0.00,Wunderground v.1.15,2013-08-19 13:59:00,
2013-08-19 10:01:00,64.8,63.6,30.24,NW,319,0.0,0.0,96,0.00,,,0.00,Wunderground v.1.15,2013-08-19 14:01:00,
2013-08-19 10:02:00,64.8,63.6,30.24,WNW,296,1.0,2.0,96,0.00,,,0.00,Wunderground v.1.15,2013-08-19 14:02:00,
2013-08-19 10:03:00,64.8,63.6,30.24,WNW,296,1.0,2.0,96,0.00,,,0.00,Wunderground v.1.15,2013-08-19 14:03:00,
2013-08-19 10:05:00,64.9,63.7,30.24,WNW,296,2.0,2.0,96,0.00,,,0.00,Wunderground v.1.15,2013-08-19 14:05:00,
2013-08-19 10:06:00,64.9,63.7,30.24,WNW,296,1.0,3.0,96,0.00,,,0.00,Wunderground v.1.15,2013-08-19 14:06:00,
2013-08-19 10:07:00,65.0,63.5,30.24,WNW,296,1.0,3.0,95,0.00,,,0.00,Wunderground v.1.15,2013-08-19 14:07:00,
2013-08-19 10:08:00,65.0,63.5,30.24,WNW,296,1.0,3.0,95,0.00,,,0.00,Wunderground v.1.15,2013-08-19 14:08:00,
2013-08-19 10:11:00,65.1,63.6,30.24,WNW,296,0.0,1.0,95,0.00,,,0.00,Wunderground v.1.15,2013-08-19 14:11:00,
2013-08-19 10:12:00,65.2,63.7,30.24,WNW,296,0.0,1.0,95,0.00,,,0.00,Wunderground v.1.15,2013-08-19 14:12:00,
2013-08-19 10:13:00,65.2,63.7,30.24,WNW,296,1.0,1.0,95,0.00,,,0.00,Wunderground v.1.15,2013-08-19 14:13:00,
2013-08-19 10:16:00,65.2,63.7,30.24,WNW,296,0.0,1.0,95,0.00,,,0.00,Wunderground v.1.15,2013-08-19 14:16:00,
2013-08-19 10:18:00,65.3,63.8,30.24,WNW,296,1.0,2.0,95,0.00,,,0.00,Wunderground v.1.15,2013-08-19 14:18:00,
2013-08-19 10:19:00,65.2,63.7,30.24,WNW,296,0.0,2.0,95,0.00,,,0.00,Wunderground v.1.15,2013-08-19 14:19:00,
2013-08-19 10:21:00,65.3,63.8,30.25,WNW,296,0.0,1.0,95,0.00,,,0.00,Wunderground v.1.15,2013-08-19 14:21:00,
2013-08-19 10:22:00,65.3,63.8,30.25,WNW,296,0.0,1.0,95,0.00,,,0.00,Wunderground v.1.15,2013-08-19 14:22:00,
2013-08-19 10:23:00,65.3,63.8,30.25,WNW,296,0.0,1.0,95,0.00,,,0.00,Wunderground v.1.15,2013-08-19 14:23:00,
2013-08-19 10:24:00,65.4,63.9,30.25,WNW,296,0.0,2.0,95,0.00,,,0.00,Wunderground v.1.15,2013-08-19 14:24:00,
2013-08-19 10:26:00,65.4,63.9,30.25,WSW,257,0.0,3.0,95,0.00,,,0.00,Wunderground v.1.15,2013-08-19 14:26:00,
2013-08-19 10:27:00,65.5,64.0,30.25,WSW,257,2.0,3.0,95,0.00,,,0.00,Wunderground v.1.15,2013-08-19 14:27:00,
2013-08-19 10:28:00,65.5,64.0,30.25,WNW,287,1.0,3.0,95,0.00,,,0.00,Wunderground v.1.15,2013-08-19 14:28:00,
2013-08-19 10:29:00,65.6,64.1,30.25,SSW,196,1.0,3.0,95,0.00,,,0.00,Wunderground v.1.15,2013-08-19 14:29:00,
2013-08-19 10:30:00,65.6,64.1,30.25,SSW,211,1.0,1.0,95,0.00,,,0.00,Wunderground v.1.15,2013-08-19 14:30:00,
2013-08-19 10:31:00,65.6,64.1,30.25,SSW,198,2.0,2.0,95,0.00,,,0.00,Wunderground v.1.15,2013-08-19 14:31:00,
2013-08-19 10:32:00,65.7,64.2,30.25,SSE,163,2.0,3.0,95,0.00,,,0.00,Wunderground v.1.15,2013-08-19 14:32:00,
2013-08-19 10:34:00,65.8,64.3,30.25,SSE,163,2.0,3.0,95,0.00,,,0.00,Wunderground v.1.15,2013-08-19 14:34:00,
2013-08-19 10:35:00,65.8,64.3,30.25,SSE,163,1.0,3.0,95,0.00,,,0.00,Wunderground v.1.15,2013-08-19 14:35:00,
2013-08-19 10:36:00,65.8,64.3,30.25,South,173,0.0,3.0,95,0.00,,,0.00,Wunderground v.1.15,2013-08-19 14:36:00,
2013-08-19 10:37:00,65.8,64.0,30.25,SW,236,1.0,3.0,94,0.00,,,0.00,Wunderground v.1.15,2013-08-19 14:37:00,
2013-08-19 10:39:00,65.8,64.0,30.25,SW,229,1.0,3.0,94,0.00,,,0.00,Wunderground v.1.15,2013-08-19 14:39:00,
2013-08-19 10:40:00,65.9,64.1,30.25,WSW,240,1.0,1.0,94,0.00,,,0.00,Wunderground v.1.15,2013-08-19 14:40:00,
2013-08-19 10:41:00,65.9,64.1,30.25,SW,227,1.0,2.0,94,0.00,,,0.00,Wunderground v.1.15,2013-08-19 14:41:00,
2013-08-19 10:42:00,65.9,64.1,30.25,SW,227,3.0,3.0,94,0.00,,,0.00,Wunderground v.1.15,2013-08-19 14:42:00,
2013-08-19 10:43:00,65.9,64.1,30.25,SW,217,3.0,3.0,94,0.00,,,0.00,Wunderground v.1.15,2013-08-19 14:43:00,
2013-08-19 10:44:00,66.0,64.2,30.25,SW,219,1.0,4.0,94,0.00,,,0.00,Wunderground v.1.15,2013-08-19 14:44:00,
2013-08-19 10:45:00,66.0,64.2,30.25,SW,234,2.0,4.0,94,0.00,,,0.00,Wunderground v.1.15,2013-08-19 14:45:00,
2013-08-19 10:46:00,66.0,64.2,30.25,SW,234,1.0,4.0,94,0.00,,,0.00,Wunderground v.1.15,2013-08-19 14:46:00,
2013-08-19 10:47:00,66.0,63.9,30.24,SW,234,1.0,4.0,93,0.00,,,0.00,Wunderground v.1.15,2013-08-19 14:47:00,
2013-08-19 10:48:00,66.1,64.3,30.25,SW,234,1.0,4.0,94,0.00,,,0.00,Wunderground v.1.15,2013-08-19 14:48:00,
2013-08-19 10:50:00,66.1,64.3,30.24,SW,234,1.0,1.0,94,0.00,,,0.00,Wunderground v.1.15,2013-08-19 14:50:00,
2013-08-19 10:52:00,66.2,64.4,30.24,SW,229,1.0,3.0,94,0.00,,,0.00,Wunderground v.1.15,2013-08-19 14:52:00,
2013-08-19 10:54:00,66.2,64.4,30.24,WNW,284,0.0,3.0,94,0.00,,,0.00,Wunderground v.1.15,2013-08-19 14:54:00,
2013-08-19 10:55:00,66.2,64.1,30.24,WNW,284,0.0,3.0,93,0.00,,,0.00,Wunderground v.1.15,2013-08-19 14:55:00,
2013-08-19 10:57:00,66.2,64.1,30.25,WNW,284,0.0,3.0,93,0.00,,,0.00,Wunderground v.1.15,2013-08-19 14:57:00,
2013-08-19 10:58:00,66.3,63.9,30.25,WNW,284,0.0,3.0,92,0.00,,,0.00,Wunderground v.1.15,2013-08-19 14:58:00,
2013-08-19 10:59:00,66.3,63.9,30.25,West,271,0.0,3.0,92,0.00,,,0.00,Wunderground v.1.15,2013-08-19 14:59:00,
2013-08-19 11:00:00,66.3,63.9,30.25,West,271,0.0,0.0,92,0.00,,,0.00,Wunderground v.1.15,2013-08-19 15:00:00,
2013-08-19 11:02:00,66.3,64.2,30.25,West,271,0.0,1.0,93,0.00,,,0.00,Wunderground v.1.15,2013-08-19 15:02:00,
2013-08-19 11:03:00,66.4,64.3,30.25,West,270,2.0,2.0,93,0.00,,,0.00,Wunderground v.1.15,2013-08-19 15:03:00,
2013-08-19 11:04:00,66.4,64.3,30.25,WSW,246,0.0,3.0,93,0.00,,,0.00,Wunderground v.1.15,2013-08-19 15:04:00,
2013-08-19 11:06:00,66.4,64.3,30.25,WSW,246,1.0,3.0,93,0.00,,,0.00,Wunderground v.1.15,2013-08-19 15:06:00,
2013-08-19 11:08:00,66.5,64.4,30.25,WSW,240,0.0,3.0,93,0.00,,,0.00,Wunderground v.1.15,2013-08-19 15:08:00,
2013-08-19 11:10:00,66.5,64.4,30.24,WSW,240,1.0,1.0,93,0.00,,,0.00,Wunderground v.1.15,2013-08-19 15:10:00,
2013-08-19 11:11:00,66.5,64.4,30.25,WSW,239,0.0,2.0,93,0.00,,,0.00,Wunderground v.1.15,2013-08-19 15:11:00,
2013-08-19 11:13:00,66.5,64.1,30.25,SSW,208,1.0,2.0,92,0.00,,,0.00,Wunderground v.1.15,2013-08-19 15:13:00,
2013-08-19 11:15:00,66.5,64.4,30.24,SSW,211,0.0,4.0,93,0.00,,,0.00,Wunderground v.1.15,2013-08-19 15:15:00,
2013-08-19 11:16:00,66.5,64.4,30.24,SW,227,2.0,4.0,93,0.00,,,0.00,Wunderground v.1.15,2013-08-19 15:16:00,
2013-08-19 11:19:00,66.6,64.2,30.25,SW,226,2.0,4.0,92,0.00,,,0.00,Wunderground v.1.15,2013-08-19 15:19:00,
2013-08-19 11:20:00,66.7,64.6,30.25,West,267,1.0,2.0,93,0.00,,,0.00,Wunderground v.1.15,2013-08-19 15:20:00,
2013-08-19 11:21:00,66.7,64.9,30.25,West,275,1.0,2.0,94,0.00,,,0.00,Wunderground v.1.15,2013-08-19 15:21:00,
2013-08-19 11:24:00,66.7,64.6,30.25,West,281,1.0,5.0,93,0.00,,,0.00,Wunderground v.1.15,2013-08-19 15:24:00,
2013-08-19 11:26:00,66.7,64.6,30.25,SW,215,2.0,5.0,93,0.00,,,0.00,Wunderground v.1.15,2013-08-19 15:26:00,
2013-08-19 11:30:00,66.7,64.6,30.25,West,279,0.0,2.0,93,0.00,,,0.00,Wunderground v.1.15,2013-08-19 15:30:00,
2013-08-19 11:31:00,66.7,64.6,30.25,West,279,0.0,2.0,93,0.00,,,0.00,Wunderground v.1.15,2013-08-19 15:31:00,
2013-08-19 11:35:00,66.7,64.3,30.25,SSE,160,0.0,2.0,92,0.00,,,0.00,Wunderground v.1.15,2013-08-19 15:35:00,
2013-08-19 11:36:00,66.7,64.3,30.25,SW,232,2.0,2.0,92,0.00,,,0.00,Wunderground v.1.15,2013-08-19 15:36:00,
2013-08-19 11:37:00,66.7,64.3,30.25,WSW,242,1.0,2.0,92,0.00,,,0.00,Wunderground v.1.15,2013-08-19 15:37:00,
2013-08-19 11:40:00,66.8,64.4,30.25,West,273,2.0,2.0,92,0.00,,,0.00,Wunderground v.1.15,2013-08-19 15:40:00,
2013-08-19 11:41:00,66.8,64.4,30.25,West,273,0.0,2.0,92,0.00,,,0.00,Wunderground v.1.15,2013-08-19 15:41:00,
2013-08-19 11:42:00,66.8,64.4,30.25,West,273,1.0,2.0,92,0.00,,,0.00,Wunderground v.1.15,2013-08-19 15:42:00,
2013-08-19 11:45:00,66.8,64.4,30.25,SW,225,1.0,4.0,92,0.00,,,0.00,Wunderground v.1.15,2013-08-19 15:45:00,
2013-08-19 11:46:00,66.8,64.4,30.25,SW,225,0.0,4.0,92,0.00,,,0.00,Wunderground v.1.15,2013-08-19 15:46:00,
2013-08-19 11:47:00,66.8,64.4,30.25,SW,225,0.0,4.0,92,0.00,,,0.00,Wunderground v.1.15,2013-08-19 15:47:00,
2013-08-19 11:51:00,67.0,64.6,30.25,SW,229,1.0,1.0,92,0.00,,,0.00,Wunderground v.1.15,2013-08-19 15:51:00,
2013-08-19 11:52:00,67.0,64.6,30.25,SW,229,1.0,1.0,92,0.00,,,0.00,Wunderground v.1.15,2013-08-19 15:52:00,
2013-08-19 11:53:00,67.0,64.3,30.26,West,273,1.0,2.0,91,0.00,,,0.00,Wunderground v.1.15,2013-08-19 15:53:00,
2013-08-19 11:56:00,67.1,64.4,30.26,West,272,2.0,3.0,91,0.00,,,0.00,Wunderground v.1.15,2013-08-19 15:56:00,
2013-08-19 11:57:00,67.1,64.4,30.26,West,277,1.0,3.0,91,0.00,,,0.00,Wunderground v.1.15,2013-08-19 15:57:00,
2013-08-19 11:58:00,67.1,64.7,30.26,WNW,296,2.0,3.0,92,0.00,,,0.00,Wunderground v.1.15,2013-08-19 15:58:00,
2013-08-19 12:01:00,67.3,65.2,30.26,WNW,296,2.0,2.0,93,0.00,,,0.00,Wunderground v.1.15,2013-08-19 16:01:00,
2013-08-19 12:02:00,67.3,64.9,30.26,WNW,300,2.0,2.0,92,0.00,,,0.00,Wunderground v.1.15,2013-08-19 16:02:00,
2013-08-19 12:03:00,67.3,64.9,30.26,NW,320,2.0,4.0,92,0.00,,,0.00,Wunderground v.1.15,2013-08-19 16:03:00,
2013-08-19 12:06:00,67.3,64.6,30.26,WNW,299,2.0,4.0,91,0.00,,,0.00,Wunderground v.1.15,2013-08-19 16:06:00,
2013-08-19 12:07:00,67.2,64.5,30.26,WNW,294,1.0,4.0,91,0.00,,,0.00,Wunderground v.1.15,2013-08-19 16:07:00,
2013-08-19 12:08:00,67.2,64.5,30.26,West,273,0.0,4.0,91,0.00,,,0.00,Wunderground v.1.15,2013-08-19 16:08:00,
2013-08-19 12:11:00,67.3,64.9,30.25,West,274,0.0,1.0,92,0.00,,,0.00,Wunderground v.1.15,2013-08-19 16:11:00,
2013-08-19 12:12:00,67.3,64.6,30.25,West,274,0.0,1.0,91,0.00,,,0.00,Wunderground v.1.15,2013-08-19 16:12:00,
2013-08-19 12:14:00,67.3,64.6,30.26,West,274,0.0,1.0,91,0.00,,,0.00,Wunderground v.1.15,2013-08-19 16:14:00,
2013-08-19 12:16:00,67.3,64.3,30.25,West,273,0.0,3.0,90,0.00,,,0.00,Wunderground v.1.15,2013-08-19 16:16:00,
2013-08-19 12:18:00,67.3,64.6,30.26,SSW,209,0.0,3.0,91,0.00,,,0.00,Wunderground v.1.15,2013-08-19 16:18:00,
2013-08-19 12:19:00,67.3,64.6,30.25,SW,215,0.0,3.0,91,0.00,,,0.00,Wunderground v.1.15,2013-08-19 16:19:00,
2013-08-19 12:22:00,67.4,64.7,30.25,SSW,208,0.0,2.0,91,0.00,,,0.00,Wunderground v.1.15,2013-08-19 16:22:00,
2013-08-19 12:23:00,67.4,64.7,30.25,SSW,208,0.0,2.0,91,0.00,,,0.00,Wunderground v.1.15,2013-08-19 16:23:00,
2013-08-19 12:24:00,67.4,64.7,30.25,SSW,208,0.0,2.0,91,0.00,,,0.00,Wunderground v.1.15,2013-08-19 16:24:00,
2013-08-19 12:25:00,67.5,64.8,30.25,SSW,208,0.0,2.0,91,0.00,,,0.00,Wunderground v.1.15,2013-08-19 16:25:00,
2013-08-19 12:27:00,67.6,64.6,30.25,SW,218,0.0,2.0,90,0.00,,,0.00,Wunderground v.1.15,2013-08-19 16:27:00,
2013-08-19 12:28:00,67.6,64.6,30.25,SSW,192,1.0,2.0,90,0.00,,,0.00,Wunderground v.1.15,2013-08-19 16:28:00,
2013-08-19 12:29:00,67.6,64.6,30.25,SSW,196,0.0,2.0,90,0.00,,,0.00,Wunderground v.1.15,2013-08-19 16:29:00,
2013-08-19 12:30:00,67.7,64.7,30.25,SSW,196,0.0,0.0,90,0.00,,,0.00,Wunderground v.1.15,2013-08-19 16:30:00,
2013-08-19 12:32:00,67.8,64.4,30.25,SSW,196,0.0,1.0,89,0.00,,,0.00,Wunderground v.1.15,2013-08-19 16:32:00,
2013-08-19 12:33:00,67.8,64.4,30.25,SSW,196,0.0,1.0,89,0.00,,,0.00,Wunderground v.1.15,2013-08-19 16:33:00,
2013-08-19 12:34:00,67.9,64.5,30.25,SW,226,2.0,3.0,89,0.00,,,0.00,Wunderground v.1.15,2013-08-19 16:34:00,
2013-08-19 12:35:00,67.9,64.5,30.25,SW,223,0.0,3.0,89,0.00,,,0.00,Wunderground v.1.15,2013-08-19 16:35:00,
2013-08-19 12:36:00,67.9,64.5,30.25,SW,223,0.0,3.0,89,0.00,,,0.00,Wunderground v.1.15,2013-08-19 16:36:00,
2013-08-19 12:38:00,68.0,64.6,30.25,South,189,0.0,3.0,89,0.00,,,0.00,Wunderground v.1.15,2013-08-19 16:38:00,
2013-08-19 12:40:00,68.1,64.7,30.25,SW,226,2.0,2.0,89,0.00,,,0.00,Wunderground v.1.15,2013-08-19 16:40:00,
2013-08-19 12:41:00,68.2,64.8,30.25,WSW,253,0.0,2.0,89,0.00,,,0.00,Wunderground v.1.15,2013-08-19 16:41:00,
2013-08-19 12:43:00,68.3,64.6,30.25,WSW,244,0.0,3.0,88,0.00,,,0.00,Wunderground v.1.15,2013-08-19 16:43:00,
2013-08-19 12:45:00,68.4,64.7,30.25,WSW,244,0.0,3.0,88,0.00,,,0.00,Wunderground v.1.15,2013-08-19 16:45:00,
2013-08-19 12:46:00,68.4,64.7,30.25,WSW,245,1.0,3.0,88,0.00,,,0.00,Wunderground v.1.15,2013-08-19 16:46:00,
2013-08-19 12:48:00,68.4,64.0,30.25,WNW,289,0.0,3.0,86,0.00,,,0.00,Wunderground v.1.15,2013-08-19 16:48:00,
2013-08-19 12:50:00,68.4,64.4,30.25,WNW,298,0.0,1.0,87,0.00,,,0.00,Wunderground v.1.15,2013-08-19 16:50:00,
2013-08-19 12:51:00,68.4,64.4,30.25,WSW,257,0.0,1.0,87,0.00,,,0.00,Wunderground v.1.15,2013-08-19 16:51:00,
2013-08-19 12:53:00,68.5,64.5,30.24,WSW,257,0.0,1.0,87,0.00,,,0.00,Wunderground v.1.15,2013-08-19 16:53:00,
2013-08-19 12:54:00,68.5,64.5,30.24,WSW,257,0.0,1.0,87,0.00,,,0.00,Wunderground v.1.15,2013-08-19 16:54:00,
2013-08-19 12:55:00,68.6,64.9,30.24,South,171,0.0,1.0,88,0.00,,,0.00,Wunderground v.1.15,2013-08-19 16:55:00,
2013-08-19 12:56:00,68.6,64.9,30.24,South,171,0.0,1.0,88,0.00,,,0.00,Wunderground v.1.15,2013-08-19 16:56:00,
2013-08-19 12:58:00,68.7,65.0,30.25,WSW,246,2.0,3.0,88,0.00,,,0.00,Wunderground v.1.15,2013-08-19 16:58:00,
2013-08-19 12:59:00,68.8,65.1,30.25,SW,231,0.0,3.0,88,0.00,,,0.00,Wunderground v.1.15,2013-08-19 16:59:00,
2013-08-19 13:00:00,68.8,64.8,30.25,WSW,242,0.0,0.0,87,0.00,,,0.00,Wunderground v.1.15,2013-08-19 17:00:00,
2013-08-19 13:01:00,68.8,64.8,30.25,WSW,242,0.0,0.0,87,0.00,,,0.00,Wunderground v.1.15,2013-08-19 17:01:00,
2013-08-19 13:02:00,68.9,64.9,30.25,SW,227,0.0,0.0,87,0.00,,,0.00,Wunderground v.1.15,2013-08-19 17:02:00,
2013-08-19 13:04:00,68.9,64.9,30.24,SW,224,0.0,0.0,87,0.00,,,0.00,Wunderground v.1.15,2013-08-19 17:04:00,
2013-08-19 13:06:00,68.9,64.9,30.24,WSW,246,0.0,0.0,87,0.00,,,0.00,Wunderground v.1.15,2013-08-19 17:06:00,
2013-08-19 13:07:00,69.0,65.0,30.24,WSW,246,0.0,0.0,87,0.00,,,0.00,Wunderground v.1.15,2013-08-19 17:07:00,
2013-08-19 13:09:00,69.0,65.3,30.24,SW,236,0.0,0.0,88,0.00,,,0.00,Wunderground v.1.15,2013-08-19 17:09:00,
2013-08-19 13:10:00,69.1,65.4,30.25,WSW,248,0.0,0.0,88,0.00,,,0.00,Wunderground v.1.15,2013-08-19 17:10:00,
2013-08-19 13:11:00,69.1,64.7,30.25,WSW,248,0.0,0.0,86,0.00,,,0.00,Wunderground v.1.15,2013-08-19 17:11:00,
2013-08-19 13:12:00,69.1,64.7,30.25,WSW,248,0.0,0.0,86,0.00,,,0.00,Wunderground v.1.15,2013-08-19 17:12:00,
2013-08-19 13:14:00,69.2,64.8,30.24,WSW,248,0.0,0.0,86,0.00,,,0.00,Wunderground v.1.15,2013-08-19 17:14:00,
2013-08-19 13:15:00,69.2,65.2,30.24,SW,232,0.0,0.0,87,0.00,,,0.00,Wunderground v.1.15,2013-08-19 17:15:00,
2013-08-19 13:16:00,69.3,64.9,30.24,SW,217,0.0,0.0,86,0.00,,,0.00,Wunderground v.1.15,2013-08-19 17:16:00,
2013-08-19 13:17:00,69.3,64.9,30.24,WSW,243,0.0,0.0,86,0.00,,,0.00,Wunderground v.1.15,2013-08-19 17:17:00,
2013-08-19 13:18:00,69.3,64.9,30.24,WSW,244,0.0,0.0,86,0.00,,,0.00,Wunderground v.1.15,2013-08-19 17:18:00,
2013-08-19 13:19:00,69.5,65.1,30.24,WNW,283,0.0,0.0,86,0.00,,,0.00,Wunderground v.1.15,2013-08-19 17:19:00,
2013-08-19 13:20:00,69.5,65.1,30.24,WSW,244,0.0,0.0,86,0.00,,,0.00,Wunderground v.1.15,2013-08-19 17:20:00,
2013-08-19 13:21:00,69.5,64.8,30.24,WSW,244,0.0,0.0,85,0.00,,,0.00,Wunderground v.1.15,2013-08-19 17:21:00,
2013-08-19 13:22:00,69.5,64.8,30.24,West,279,0.0,0.0,85,0.00,,,0.00,Wunderground v.1.15,2013-08-19 17:22:00,
2013-08-19 13:23:00,69.6,64.9,30.24,SW,230,1.0,1.0,85,0.00,,,0.00,Wunderground v.1.15,2013-08-19 17:23:00,
2013-08-19 13:25:00,69.7,64.6,30.24,SW,235,0.0,1.0,84,0.00,,,0.00,Wunderground v.1.15,2013-08-19 17:25:00,
2013-08-19 13:26:00,69.7,64.6,30.24,SW,235,0.0,1.0,84,0.00,,,0.00,Wunderground v.1.15,2013-08-19 17:26:00,
2013-08-19 13:27:00,69.7,64.6,30.24,SW,235,0.0,1.0,84,0.00,,,0.00,Wunderground v.1.15,2013-08-19 17:27:00,
2013-08-19 13:28:00,69.8,64.7,30.24,WNW,290,0.0,1.0,84,0.00,,,0.00,Wunderground v.1.15,2013-08-19 17:28:00,
2013-08-19 13:30:00,69.9,64.8,30.24,SW,229,0.0,0.0,84,0.00,,,0.00,Wunderground v.1.15,2013-08-19 17:30:00,
2013-08-19 13:31:00,69.9,64.5,30.24,WSW,241,0.0,1.0,83,0.00,,,0.00,Wunderground v.1.15,2013-08-19 17:31:00,
2013-08-19 13:32:00,69.9,64.5,30.24,WSW,241,0.0,1.0,83,0.00,,,0.00,Wunderground v.1.15,2013-08-19 17:32:00,
2013-08-19 13:33:00,70.0,64.9,30.24,SW,227,3.0,3.0,84,0.00,,,0.00,Wunderground v.1.15,2013-08-19 17:33:00,
2013-08-19 13:36:00,70.1,65.0,30.24,WSW,250,0.0,3.0,84,0.00,,,0.00,Wunderground v.1.15,2013-08-19 17:36:00,
2013-08-19 13:37:00,70.1,64.7,30.24,West,274,0.0,3.0,83,0.00,,,0.00,Wunderground v.1.15,2013-08-19 17:37:00,
2013-08-19 13:38:00,70.1,64.7,30.24,SW,231,1.0,3.0,83,0.00,,,0.00,Wunderground v.1.15,2013-08-19 17:38:00,
2013-08-19 13:39:00,70.2,64.8,30.24,SW,226,0.0,3.0,83,0.00,,,0.00,Wunderground v.1.15,2013-08-19 17:39:00,
2013-08-19 13:41:00,70.2,64.8,30.24,SW,217,0.0,2.0,83,0.00,,,0.00,Wunderground v.1.15,2013-08-19 17:41:00,
2013-08-19 13:42:00,70.2,64.8,30.24,SSW,209,0.0,2.0,83,0.00,,,0.00,Wunderground v.1.15,2013-08-19 17:42:00,
2013-08-19 13:43:00,70.2,64.4,30.24,South,175,0.0,2.0,82,0.00,,,0.00,Wunderground v.1.15,2013-08-19 17:43:00,
2013-08-19 13:44:00,70.3,64.9,30.24,SSW,213,1.0,2.0,83,0.00,,,0.00,Wunderground v.1.15,2013-08-19 17:44:00,
2013-08-19 13:46:00,70.3,64.9,30.24,South,171,3.0,3.0,83,0.00,,,0.00,Wunderground v.1.15,2013-08-19 17:46:00,
2013-08-19 13:48:00,70.3,64.9,30.24,South,178,0.0,4.0,83,0.00,,,0.00,Wunderground v.1.15,2013-08-19 17:48:00,
2013-08-19 13:49:00,70.4,64.6,30.24,SW,229,2.0,5.0,82,0.00,,,0.00,Wunderground v.1.15,2013-08-19 17:49:00,
2013-08-19 13:51:00,70.4,64.6,30.24,SSW,213,0.0,1.0,82,0.00,,,0.00,Wunderground v.1.15,2013-08-19 17:51:00,
2013-08-19 13:52:00,70.5,64.7,30.24,WSW,238,2.0,4.0,82,0.00,,,0.00,Wunderground v.1.15,2013-08-19 17:52:00,
2013-08-19 13:53:00,70.5,64.7,30.24,SSW,209,0.0,4.0,82,0.00,,,0.00,Wunderground v.1.15,2013-08-19 17:53:00,
2013-08-19 13:54:00,70.6,64.8,30.24,SW,232,0.0,4.0,82,0.00,,,0.00,Wunderground v.1.15,2013-08-19 17:54:00,
2013-08-19 13:55:00,70.6,64.8,30.24,SW,214,4.0,4.0,82,0.00,,,0.00,Wunderground v.1.15,2013-08-19 17:55:00,
2013-08-19 13:57:00,70.7,64.9,30.24,SW,215,0.0,4.0,82,0.00,,,0.00,Wunderground v.1.15,2013-08-19 17:57:00,
2013-08-19 13:58:00,70.8,65.0,30.24,West,272,0.0,4.0,82,0.00,,,0.00,Wunderground v.1.15,2013-08-19 17:58:00,
2013-08-19 13:59:00,70.8,64.3,30.24,NW,317,0.0,4.0,80,0.00,,,0.00,Wunderground v.1.15,2013-08-19 17:59:00,
2013-08-19 14:01:00,70.9,64.4,30.24,WNW,295,4.0,4.0,80,0.00,,,0.00,Wunderground v.1.15,2013-08-19 18:01:00,
2013-08-19 14:03:00,71.0,64.5,30.24,NW,307,0.0,4.0,80,0.00,,,0.00,Wunderground v.1.15,2013-08-19 18:03:00,
2013-08-19 14:04:00,71.1,65.3,30.24,WNW,298,0.0,4.0,82,0.00,,,0.00,Wunderground v.1.15,2013-08-19 18:04:00,
2013-08-19 14:06:00,71.2,64.7,30.24,WSW,237,0.0,5.0,80,0.00,,,0.00,Wunderground v.1.15,2013-08-19 18:06:00,
2013-08-19 14:08:00,71.3,64.4,30.23,WSW,238,0.0,5.0,79,0.00,,,0.00,Wunderground v.1.15,2013-08-19 18:08:00,
2013-08-19 14:09:00,71.4,64.5,30.23,West,264,0.0,5.0,79,0.00,,,0.00,Wunderground v.1.15,2013-08-19 18:09:00,
2013-08-19 14:10:00,71.4,64.5,30.23,WNW,284,0.0,1.0,79,0.00,,,0.00,Wunderground v.1.15,2013-08-19 18:10:00,
2013-08-19 14:11:00,71.5,64.3,30.23,WNW,285,0.0,1.0,78,0.00,,,0.00,Wunderground v.1.15,2013-08-19 18:11:00,
2013-08-19 14:13:00,71.6,64.7,30.23,WSW,258,0.0,1.0,79,0.00,,,0.00,Wunderground v.1.15,2013-08-19 18:13:00,
2013-08-19 14:14:00,71.6,64.7,30.23,WSW,258,0.0,1.0,79,0.00,,,0.00,Wunderground v.1.15,2013-08-19 18:14:00,
2013-08-19 14:15:00,71.7,64.8,30.23,WSW,250,0.0,1.0,79,0.00,,,0.00,Wunderground v.1.15,2013-08-19 18:15:00,
2013-08-19 14:16:00,71.8,64.9,30.23,WSW,250,0.0,1.0,79,0.00,,,0.00,Wunderground v.1.15,2013-08-19 18:16:00,
2013-08-19 14:19:00,71.9,65.0,30.23,WSW,244,0.0,1.0,79,0.00,,,0.00,Wunderground v.1.15,2013-08-19 18:19:00,
2013-08-19 14:20:00,71.9,64.7,30.23,South,189,0.0,2.0,78,0.00,,,0.00,Wunderground v.1.15,2013-08-19 18:20:00,
2013-08-19 14:22:00,71.8,64.6,30.23,WSW,241,0.0,2.0,78,0.00,,,0.00,Wunderground v.1.15,2013-08-19 18:22:00,
2013-08-19 14:24:00,71.7,64.5,30.23,WSW,254,0.0,2.0,78,0.00,,,0.00,Wunderground v.1.15,2013-08-19 18:24:00,
2013-08-19 14:25:00,71.7,64.5,30.24,WSW,244,0.0,2.0,78,0.00,,,0.00,Wunderground v.1.15,2013-08-19 18:25:00,
2013-08-19 14:27:00,71.7,64.5,30.24,SW,221,0.0,2.0,78,0.00,,,0.00,Wunderground v.1.15,2013-08-19 18:27:00,
2013-08-19 14:29:00,71.6,64.4,30.23,SW,227,0.0,2.0,78,0.00,,,0.00,Wunderground v.1.15,2013-08-19 18:29:00,
2013-08-19 14:30:00,71.6,64.4,30.24,SW,227,0.0,0.0,78,0.00,,,0.00,Wunderground v.1.15,2013-08-19 18:30:00,
2013-08-19 14:31:00,71.6,64.4,30.24,SW,227,0.0,0.0,78,0.00,,,0.00,Wunderground v.1.15,2013-08-19 18:31:00,
2013-08-19 14:32:00,71.7,64.8,30.24,SW,225,0.0,0.0,79,0.00,,,0.00,Wunderground v.1.15,2013-08-19 18:32:00,
2013-08-19 14:35:00,71.8,64.9,30.23,WNW,294,0.0,0.0,79,0.00,,,0.00,Wunderground v.1.15,2013-08-19 18:35:00,
2013-08-19 14:36:00,71.7,64.5,30.23,SW,227,0.0,0.0,78,0.00,,,0.00,Wunderground v.1.15,2013-08-19 18:36:00,
2013-08-19 14:37:00,71.8,64.2,30.23,WSW,257,0.0,0.0,77,0.00,,,0.00,Wunderground v.1.15,2013-08-19 18:37:00,
2013-08-19 14:40:00,71.8,64.9,30.23,West,276,0.0,0.0,79,0.00,,,0.00,Wunderground v.1.15,2013-08-19 18:40:00,
2013-08-19 14:41:00,71.8,64.9,30.23,West,276,0.0,0.0,79,0.00,,,0.00,Wunderground v.1.15,2013-08-19 18:41:00,
2013-08-19 14:42:00,71.8,64.9,30.23,WNW,288,0.0,3.0,79,0.00,,,0.00,Wunderground v.1.15,2013-08-19 18:42:00,
2013-08-19 14:45:00,71.9,64.7,30.23,SW,236,0.0,3.0,78,0.00,,,0.00,Wunderground v.1.15,2013-08-19 18:45:00,
2013-08-19 14:46:00,71.9,64.7,30.23,SW,223,0.0,3.0,78,0.00,,,0.00,Wunderground v.1.15,2013-08-19 18:46:00,
2013-08-19 14:47:00,71.9,64.3,30.23,SW,223,0.0,3.0,77,0.00,,,0.00,Wunderground v.1.15,2013-08-19 18:47:00,
2013-08-19 14:48:00,71.9,64.3,30.23,SW,236,0.0,3.0,77,0.00,,,0.00,Wunderground v.1.15,2013-08-19 18:48:00,
2013-08-19 14:50:00,71.9,65.0,30.23,WNW,298,2.0,2.0,79,0.00,,,0.00,Wunderground v.1.15,2013-08-19 18:50:00,
2013-08-19 14:51:00,71.9,64.7,30.23,WNW,296,0.0,4.0,78,0.00,,,0.00,Wunderground v.1.15,2013-08-19 18:51:00,
2013-08-19 14:52:00,71.9,64.3,30.23,WNW,295,4.0,4.0,77,0.00,,,0.00,Wunderground v.1.15,2013-08-19 18:52:00,
2013-08-19 14:53:00,72.0,64.4,30.23,WNW,297,0.0,4.0,77,0.00,,,0.00,Wunderground v.1.15,2013-08-19 18:53:00,
2013-08-19 14:55:00,72.0,64.4,30.23,WNW,302,0.0,4.0,77,0.00,,,0.00,Wunderground v.1.15,2013-08-19 18:55:00,
2013-08-19 14:56:00,72.0,64.4,30.23,WNW,284,0.0,4.0,77,0.00,,,0.00,Wunderground v.1.15,2013-08-19 18:56:00,
2013-08-19 14:57:00,72.0,64.4,30.23,West,271,0.0,4.0,77,0.00,,,0.00,Wunderground v.1.15,2013-08-19 18:57:00,
2013-08-19 14:58:00,72.0,64.4,30.23,WNW,292,0.0,4.0,77,0.00,,,0.00,Wunderground v.1.15,2013-08-19 18:58:00,
2013-08-19 15:00:00,72.1,63.7,30.23,West,271,0.0,1.0,75,0.00,,,0.00,Wunderground v.1.15,2013-08-19 19:00:00,
2013-08-19 15:02:00,72.1,64.1,30.23,South,190,0.0,1.0,76,0.00,,,0.00,Wunderground v.1.15,2013-08-19 19:02:00,
2013-08-19 15:03:00,72.1,64.5,30.23,SW,236,0.0,1.0,77,0.00,,,0.00,Wunderground v.1.15,2013-08-19 19:03:00,
2013-08-19 15:05:00,72.2,64.6,30.23,WNW,290,0.0,2.0,77,0.00,,,0.00,Wunderground v.1.15,2013-08-19 19:05:00,
2013-08-19 15:07:00,72.2,64.6,30.23,WNW,286,0.0,3.0,77,0.00,,,0.00,Wunderground v.1.15,2013-08-19 19:07:00,
2013-08-19 15:08:00,72.2,64.6,30.22,WNW,286,0.0,3.0,77,0.00,,,0.00,Wunderground v.1.15,2013-08-19 19:08:00,
2013-08-19 15:10:00,72.2,66.0,30.23,South,187,7.0,7.0,81,0.00,,,0.00,Wunderground v.1.15,2013-08-19 19:10:00,
2013-08-19 15:12:00,72.1,66.3,30.23,South,177,4.0,8.0,82,0.00,,,0.00,Wunderground v.1.15,2013-08-19 19:12:00,
2013-08-19 15:13:00,72.0,66.2,30.23,West,263,3.0,8.0,82,0.00,,,0.00,Wunderground v.1.15,2013-08-19 19:13:00,
2013-08-19 15:14:00,71.8,66.4,30.23,SSE,165,2.0,8.0,83,0.00,,,0.00,Wunderground v.1.15,2013-08-19 19:14:00,
2013-08-19 15:16:00,71.6,66.5,30.23,South,173,3.0,8.0,84,0.00,,,0.00,Wunderground v.1.15,2013-08-19 19:16:00,
2013-08-19 15:17:00,71.2,66.1,30.23,SSE,167,1.0,8.0,84,0.00,,,0.00,Wunderground v.1.15,2013-08-19 19:17:00,
2013-08-19 15:18:00,71.1,66.0,30.23,South,183,0.0,8.0,84,0.00,,,0.00,Wunderground v.1.15,2013-08-19 19:18:00,
2013-08-19 15:19:00,71.0,65.9,30.23,SSW,194,4.0,8.0,84,0.00,,,0.00,Wunderground v.1.15,2013-08-19 19:19:00,
2013-08-19 15:21:00,70.7,65.6,30.23,SE,145,1.0,5.0,84,0.00,,,0.00,Wunderground v.1.15,2013-08-19 19:21:00,
2013-08-19 15:23:00,70.4,65.3,30.23,SSE,158,2.0,5.0,84,0.00,,,0.00,Wunderground v.1.15,2013-08-19 19:23:00,
2013-08-19 15:24:00,70.3,65.2,30.22,SSE,150,0.0,5.0,84,0.00,,,0.00,Wunderground v.1.15,2013-08-19 19:24:00,
2013-08-19 15:26:00,70.2,65.1,30.22,SSW,195,3.0,6.0,84,0.00,,,0.00,Wunderground v.1.15,2013-08-19 19:26:00,
2013-08-19 15:28:00,70.1,64.7,30.22,South,188,0.0,6.0,83,0.00,,,0.00,Wunderground v.1.15,2013-08-19 19:28:00,
2013-08-19 15:29:00,70.0,64.6,30.22,South,181,0.0,6.0,83,0.00,,,0.00,Wunderground v.1.15,2013-08-19 19:29:00,
2013-08-19 15:31:00,69.9,64.5,30.22,SSW,194,3.0,6.0,83,0.00,,,0.00,Wunderground v.1.15,2013-08-19 19:31:00,
2013-08-19 15:33:00,69.9,64.2,30.22,SW,221,0.0,6.0,82,0.00,,,0.00,Wunderground v.1.15,2013-08-19 19:33:00,
2013-08-19 15:34:00,69.9,64.5,30.22,South,186,3.0,6.0,83,0.00,,,0.00,Wunderground v.1.15,2013-08-19 19:34:00,
2013-08-19 15:35:00,69.8,64.1,30.22,South,190,0.0,6.0,82,0.00,,,0.00,Wunderground v.1.15,2013-08-19 19:35:00,
2013-08-19 15:37:00,69.8,64.4,30.22,South,178,0.0,6.0,83,0.00,,,0.00,Wunderground v.1.15,2013-08-19 19:37:00,
2013-08-19 15:38:00,69.8,64.4,30.22,South,184,0.0,6.0,83,0.00,,,0.00,Wunderground v.1.15,2013-08-19 19:38:00,
2013-08-19 15:39:00,69.9,64.5,30.22,South,173,2.0,6.0,83,0.00,,,0.00,Wunderground v.1.15,2013-08-19 19:39:00,
2013-08-19 15:40:00,69.9,64.5,30.22,SSW,193,2.0,6.0,83,0.00,,,0.00,Wunderground v.1.15,2013-08-19 19:40:00,
2013-08-19 15:43:00,69.8,64.4,30.22,SSE,147,3.0,6.0,83,0.00,,,0.00,Wunderground v.1.15,2013-08-19 19:43:00,
2013-08-19 15:44:00,69.8,64.7,30.22,SW,214,1.0,6.0,84,0.00,,,0.00,Wunderground v.1.15,2013-08-19 19:44:00,
2013-08-19 15:45:00,69.9,64.8,30.22,SW,215,1.0,6.0,84,0.00,,,0.00,Wunderground v.1.15,2013-08-19 19:45:00,
2013-08-19 15:46:00,69.9,64.8,30.22,SSW,207,4.0,6.0,84,0.00,,,0.00,Wunderground v.1.15,2013-08-19 19:46:00,
2013-08-19 15:48:00,69.9,64.8,30.22,South,187,0.0,6.0,84,0.00,,,0.00,Wunderground v.1.15,2013-08-19 19:48:00,
2013-08-19 15:50:00,70.0,65.3,30.22,SW,232,0.0,2.0,85,0.00,,,0.00,Wunderground v.1.15,2013-08-19 19:50:00,
2013-08-19 15:51:00,70.1,65.0,30.22,SW,229,0.0,2.0,84,0.00,,,0.00,Wunderground v.1.15,2013-08-19 19:51:00,
2013-08-19 15:53:00,70.3,65.2,30.21,SSW,211,0.0,2.0,84,0.00,,,0.00,Wunderground v.1.15,2013-08-19 19:53:00,
2013-08-19 15:55:00,70.3,65.2,30.21,WNW,284,0.0,2.0,84,0.00,,,0.00,Wunderground v.1.15,2013-08-19 19:55:00,
2013-08-19 15:57:00,70.5,65.1,30.21,West,269,0.0,2.0,83,0.00,,,0.00,Wunderground v.1.15,2013-08-19 19:57:00,
2013-08-19 15:58:00,70.5,64.7,30.21,SW,236,0.0,4.0,82,0.00,,,0.00,Wunderground v.1.15,2013-08-19 19:58:00,
2013-08-19 15:59:00,70.6,64.8,30.21,SW,217,0.0,4.0,82,0.00,,,0.00,Wunderground v.1.15,2013-08-19 19:59:00,
2013-08-19 16:00:00,70.6,64.8,30.21,SSW,211,1.0,2.0,82,0.00,,,0.00,Wunderground v.1.15,2013-08-19 20:00:00,
2013-08-19 16:01:00,70.6,65.2,30.21,SW,219,2.0,6.0,83,0.00,,,0.00,Wunderground v.1.15,2013-08-19 20:01:00,
2013-08-19 16:02:00,70.6,65.2,30.21,SSW,200,0.0,6.0,83,0.00,,,0.00,Wunderground v.1.15,2013-08-19 20:02:00,
2013-08-19 16:03:00,70.7,65.3,30.21,West,262,3.0,6.0,83,0.00,,,0.00,Wunderground v.1.15,2013-08-19 20:03:00,
2013-08-19 16:04:00,70.8,65.0,30.21,SW,229,0.0,6.0,82,0.00,,,0.00,Wunderground v.1.15,2013-08-19 20:04:00,
2013-08-19 16:05:00,70.8,65.0,30.21,NW,309,1.0,6.0,82,0.00,,,0.00,Wunderground v.1.15,2013-08-19 20:05:00,
2013-08-19 16:07:00,70.9,65.5,30.21,WNW,283,7.0,7.0,83,0.00,,,0.00,Wunderground v.1.15,2013-08-19 20:07:00,
2013-08-19 16:08:00,71.0,65.6,30.21,WSW,255,0.0,7.0,83,0.00,,,0.00,Wunderground v.1.15,2013-08-19 20:08:00,
2013-08-19 16:10:00,71.1,65.3,30.21,SW,234,1.0,1.0,82,0.00,,,0.00,Wunderground v.1.15,2013-08-19 20:10:00,
2013-08-19 16:11:00,71.2,65.1,30.21,WNW,295,0.0,3.0,81,0.00,,,0.00,Wunderground v.1.15,2013-08-19 20:11:00,
2013-08-19 16:12:00,71.2,65.1,30.21,WSW,246,0.0,3.0,81,0.00,,,0.00,Wunderground v.1.15,2013-08-19 20:12:00,
2013-08-19 16:13:00,71.2,65.1,30.21,SSW,210,2.0,3.0,81,0.00,,,0.00,Wunderground v.1.15,2013-08-19 20:13:00,
2013-08-19 16:15:00,71.2,65.1,30.21,SSE,153,0.0,3.0,81,0.00,,,0.00,Wunderground v.1.15,2013-08-19 20:15:00,
2013-08-19 16:16:00,71.2,65.1,30.21,SW,225,0.0,7.0,81,0.00,,,0.00,Wunderground v.1.15,2013-08-19 20:16:00,
2013-08-19 16:18:00,71.3,65.2,30.21,SW,234,0.0,7.0,81,0.00,,,0.00,Wunderground v.1.15,2013-08-19 20:18:00,
2013-08-19 16:20:00,71.4,64.9,30.21,SSW,210,0.0,1.0,80,0.00,,,0.00,Wunderground v.1.15,2013-08-19 20:20:00,
2013-08-19 16:21:00,71.4,65.3,30.21,SW,234,0.0,4.0,81,0.00,,,0.00,Wunderground v.1.15,2013-08-19 20:21:00,
2013-08-19 16:23:00,71.5,65.4,30.21,SW,223,0.0,4.0,81,0.00,,,0.00,Wunderground v.1.15,2013-08-19 20:23:00,
2013-08-19 16:24:00,71.5,65.4,30.21,WSW,247,0.0,4.0,81,0.00,,,0.00,Wunderground v.1.15,2013-08-19 20:24:00,
2013-08-19 16:25:00,71.6,65.5,30.21,WSW,252,2.0,4.0,81,0.00,,,0.00,Wunderground v.1.15,2013-08-19 20:25:00,
2013-08-19 16:27:00,71.7,65.6,30.21,South,169,0.0,5.0,81,0.00,,,0.00,Wunderground v.1.15,2013-08-19 20:27:00,
2013-08-19 16:28:00,71.8,65.7,30.21,SSW,205,0.0,5.0,81,0.00,,,0.00,Wunderground v.1.15,2013-08-19 20:28:00,
2013-08-19 16:29:00,71.8,65.7,30.21,South,189,2.0,5.0,81,0.00,,,0.00,Wunderground v.1.15,2013-08-19 20:29:00,
2013-08-19 16:31:00,72.0,65.5,30.20,SW,233,0.0,3.0,80,0.00,,,0.00,Wunderground v.1.15,2013-08-19 20:31:00,
2013-08-19 16:33:00,72.1,65.2,30.21,SW,230,0.0,3.0,79,0.00,,,0.00,Wunderground v.1.15,2013-08-19 20:33:00,
2013-08-19 16:34:00,72.1,65.2,30.20,SSW,197,3.0,3.0,79,0.00,,,0.00,Wunderground v.1.15,2013-08-19 20:34:00,
2013-08-19 16:37:00,72.1,65.2,30.20,WSW,257,0.0,8.0,79,0.00,,,0.00,Wunderground v.1.15,2013-08-19 20:37:00,
2013-08-19 16:39:00,72.1,65.6,30.21,West,265,0.0,8.0,80,0.00,,,0.00,Wunderground v.1.15,2013-08-19 20:39:00,
2013-08-19 16:40:00,72.1,65.2,30.21,WNW,292,1.0,2.0,79,0.00,,,0.00,Wunderground v.1.15,2013-08-19 20:40:00,
2013-08-19 16:43:00,72.0,65.1,30.20,WNW,289,4.0,5.0,79,0.00,,,0.00,Wunderground v.1.15,2013-08-19 20:43:00,
2013-08-19 16:44:00,72.0,64.8,30.20,North,360,0.0,5.0,78,0.00,,,0.00,Wunderground v.1.15,2013-08-19 20:44:00,
2013-08-19 16:45:00,71.9,65.0,30.20,SSW,210,0.0,5.0,79,0.00,,,0.00,Wunderground v.1.15,2013-08-19 20:45:00,
2013-08-19 16:48:00,71.9,65.0,30.21,South,184,0.0,5.0,79,0.00,,,0.00,Wunderground v.1.15,2013-08-19 20:48:00,
2013-08-19 16:49:00,71.8,64.9,30.21,South,180,0.0,5.0,79,0.00,,,0.00,Wunderground v.1.15,2013-08-19 20:49:00,
2013-08-19 16:50:00,71.8,65.3,30.21,South,176,0.0,1.0,80,0.00,,,0.00,Wunderground v.1.15,2013-08-19 20:50:00,
2013-08-19 16:53:00,71.8,64.9,30.20,SSE,158,0.0,3.0,79,0.00,,,0.00,Wunderground v.1.15,2013-08-19 20:53:00,
2013-08-19 16:54:00,71.8,65.3,30.20,South,178,1.0,3.0,80,0.00,,,0.00,Wunderground v.1.15,2013-08-19 20:54:00,
2013-08-19 16:55:00,71.7,64.8,30.20,South,169,0.0,3.0,79,0.00,,,0.00,Wunderground v.1.15,2013-08-19 20:55:00,
2013-08-19 16:58:00,71.9,65.4,30.20,West,264,0.0,5.0,80,0.00,,,0.00,Wunderground v.1.15,2013-08-19 20:58:00,
2013-08-19 16:59:00,71.9,65.0,30.20,WSW,246,0.0,5.0,79,0.00,,,0.00,Wunderground v.1.15,2013-08-19 20:59:00,
2013-08-19 17:00:00,71.9,65.0,30.20,WSW,237,0.0,1.0,79,0.00,,,0.00,Wunderground v.1.15,2013-08-19 21:00:00,
2013-08-19 17:04:00,72.1,65.2,30.20,SW,222,1.0,3.0,79,0.00,,,0.00,Wunderground v.1.15,2013-08-19 21:04:00,
2013-08-19 17:05:00,72.1,65.2,30.20,SW,222,1.0,3.0,79,0.00,,,0.00,Wunderground v.1.15,2013-08-19 21:05:00,
2013-08-19 17:06:00,72.2,65.3,30.20,South,176,0.0,3.0,79,0.00,,,0.00,Wunderground v.1.15,2013-08-19 21:06:00,
2013-08-19 17:10:00,72.3,65.4,30.20,WSW,242,0.0,0.0,79,0.00,,,0.00,Wunderground v.1.15,2013-08-19 21:10:00,
2013-08-19 17:11:00,72.2,65.0,30.20,SSW,210,0.0,0.0,78,0.00,,,0.00,Wunderground v.1.15,2013-08-19 21:11:00,
2013-08-19 17:12:00,72.2,65.0,30.20,SW,233,0.0,0.0,78,0.00,,,0.00,Wunderground v.1.15,2013-08-19 21:12:00,
2013-08-19 17:15:00,72.0,65.1,30.20,SW,215,0.0,4.0,79,0.00,,,0.00,Wunderground v.1.15,2013-08-19 21:15:00,
2013-08-19 17:17:00,72.0,65.1,30.20,WSW,252,2.0,6.0,79,0.00,,,0.00,Wunderground v.1.15,2013-08-19 21:17:00,
2013-08-19 17:20:00,72.1,65.2,30.20,SSW,192,4.0,5.0,79,0.00,,,0.00,Wunderground v.1.15,2013-08-19 21:20:00,
2013-08-19 17:21:00,72.1,65.2,30.20,SSW,193,7.0,7.0,79,0.00,,,0.00,Wunderground v.1.15,2013-08-19 21:21:00,
2013-08-19 17:22:00,72.1,65.2,30.20,South,182,1.0,7.0,79,0.00,,,0.00,Wunderground v.1.15,2013-08-19 21:22:00,
2013-08-19 17:23:00,72.1,65.2,30.20,WSW,250,2.0,7.0,79,0.00,,,0.00,Wunderground v.1.15,2013-08-19 21:23:00,
2013-08-19 17:25:00,72.1,65.2,30.20,WSW,240,0.0,7.0,79,0.00,,,0.00,Wunderground v.1.15,2013-08-19 21:25:00,
2013-08-19 17:26:00,72.0,65.1,30.20,SW,230,0.0,7.0,79,0.00,,,0.00,Wunderground v.1.15,2013-08-19 21:26:00,
2013-08-19 17:27:00,72.0,65.1,30.20,West,260,0.0,7.0,79,0.00,,,0.00,Wunderground v.1.15,2013-08-19 21:27:00,
2013-08-19 17:28:00,72.0,65.1,30.20,West,260,0.0,7.0,79,0.00,,,0.00,Wunderground v.1.15,2013-08-19 21:28:00,
2013-08-19 17:31:00,72.0,65.1,30.20,WSW,239,0.0,2.0,79,0.00,,,0.00,Wunderground v.1.15,2013-08-19 21:31:00,
2013-08-19 17:32:00,71.9,65.4,30.20,WSW,237,0.0,2.0,80,0.00,,,0.00,Wunderground v.1.15,2013-08-19 21:32:00,
2013-08-19 17:33:00,71.9,65.4,30.20,WSW,243,0.0,2.0,80,0.00,,,0.00,Wunderground v.1.15,2013-08-19 21:33:00,
2013-08-19 17:36:00,71.8,64.6,30.20,WSW,248,0.0,3.0,78,0.00,,,0.00,Wunderground v.1.15,2013-08-19 21:36:00,
2013-08-19 17:37:00,71.8,64.6,30.20,WSW,248,0.0,3.0,78,0.00,,,0.00,Wunderground v.1.15,2013-08-19 21:37:00,
2013-08-19 17:38:00,71.7,64.5,30.20,WSW,245,1.0,3.0,78,0.00,,,0.00,Wunderground v.1.15,2013-08-19 21:38:00,
2013-08-19 17:41:00,71.6,64.7,30.20,SSW,213,0.0,0.0,79,0.00,,,0.00,Wunderground v.1.15,2013-08-19 21:41:00,
2013-08-19 17:42:00,71.6,64.7,30.20,SSW,213,0.0,0.0,79,0.00,,,0.00,Wunderground v.1.15,2013-08-19 21:42:00,
2013-08-19 17:43:00,71.6,64.7,30.20,SSW,213,0.0,0.0,79,0.00,,,0.00,Wunderground v.1.15,2013-08-19 21:43:00,
2013-08-19 17:47:00,71.6,65.1,30.20,WSW,249,0.0,0.0,80,0.00,,,0.00,Wunderground v.1.15,2013-08-19 21:47:00,
2013-08-19 17:48:00,71.6,64.7,30.20,WSW,253,0.0,0.0,79,0.00,,,0.00,Wunderground v.1.15,2013-08-19 21:48:00,
2013-08-19 17:49:00,71.6,64.7,30.20,WSW,242,0.0,0.0,79,0.00,,,0.00,Wunderground v.1.15,2013-08-19 21:49:00,
2013-08-19 17:52:00,71.5,64.6,30.20,WSW,247,0.0,5.0,79,0.00,,,0.00,Wunderground v.1.15,2013-08-19 21:52:00,
2013-08-19 17:53:00,71.4,64.9,30.20,SW,229,0.0,5.0,80,0.00,,,0.00,Wunderground v.1.15,2013-08-19 21:53:00,
2013-08-19 17:54:00,71.4,64.9,30.20,WSW,238,0.0,5.0,80,0.00,,,0.00,Wunderground v.1.15,2013-08-19 21:54:00,
2013-08-19 17:57:00,71.3,64.8,30.20,West,260,0.0,5.0,80,0.00,,,0.00,Wunderground v.1.15,2013-08-19 21:57:00,
2013-08-19 17:58:00,71.3,64.8,30.20,SSW,200,0.0,5.0,80,0.00,,,0.00,Wunderground v.1.15,2013-08-19 21:58:00,
2013-08-19 17:59:00,71.2,64.7,30.20,SW,227,0.0,5.0,80,0.00,,,0.00,Wunderground v.1.15,2013-08-19 21:59:00,
2013-08-19 18:03:00,71.4,64.9,30.20,SSW,205,0.0,1.0,80,0.00,,,0.00,Wunderground v.1.15,2013-08-19 22:03:00,
2013-08-19 18:04:00,71.4,64.9,30.20,South,181,0.0,1.0,80,0.00,,,0.00,Wunderground v.1.15,2013-08-19 22:04:00,
2013-08-19 18:05:00,71.4,64.5,30.20,South,181,0.0,1.0,79,0.00,,,0.00,Wunderground v.1.15,2013-08-19 22:05:00,
2013-08-19 18:08:00,71.5,65.0,30.20,South,179,0.0,1.0,80,0.00,,,0.00,Wunderground v.1.15,2013-08-19 22:08:00,
2013-08-19 18:09:00,71.5,65.0,30.20,South,176,0.0,1.0,80,0.00,,,0.00,Wunderground v.1.15,2013-08-19 22:09:00,
2013-08-19 18:10:00,71.5,65.0,30.20,South,186,0.0,0.0,80,0.00,,,0.00,Wunderground v.1.15,2013-08-19 22:10:00,
2013-08-19 18:13:00,71.6,65.5,30.20,SSW,205,0.0,0.0,81,0.00,,,0.00,Wunderground v.1.15,2013-08-19 22:13:00,
2013-08-19 18:14:00,71.7,65.6,30.20,SSW,205,0.0,0.0,81,0.00,,,0.00,Wunderground v.1.15,2013-08-19 22:14:00,
2013-08-19 18:15:00,71.7,65.2,30.20,SW,215,0.0,1.0,80,0.00,,,0.00,Wunderground v.1.15,2013-08-19 22:15:00,
2013-08-19 18:19:00,71.8,65.3,30.20,WSW,244,0.0,3.0,80,0.00,,,0.00,Wunderground v.1.15,2013-08-19 22:19:00,
2013-08-19 18:20:00,71.7,65.2,30.20,SW,236,0.0,3.0,80,0.00,,,0.00,Wunderground v.1.15,2013-08-19 22:20:00,
2013-08-19 18:21:00,71.7,65.2,30.20,WSW,241,0.0,3.0,80,0.00,,,0.00,Wunderground v.1.15,2013-08-19 22:21:00,
2013-08-19 18:24:00,71.6,65.1,30.19,SW,217,0.0,3.0,80,0.00,,,0.00,Wunderground v.1.15,2013-08-19 22:24:00,
2013-08-19 18:25:00,71.6,65.1,30.20,South,180,0.0,3.0,80,0.00,,,0.00,Wunderground v.1.15,2013-08-19 22:25:00,
2013-08-19 18:26:00,71.5,65.0,30.20,SW,214,0.0,3.0,80,0.00,,,0.00,Wunderground v.1.15,2013-08-19 22:26:00,
2013-08-19 18:29:00,71.5,65.4,30.20,SW,217,0.0,3.0,81,0.00,,,0.00,Wunderground v.1.15,2013-08-19 22:29:00,
2013-08-19 18:30:00,71.5,65.4,30.20,SW,217,0.0,0.0,81,0.00,,,0.00,Wunderground v.1.15,2013-08-19 22:30:00,
2013-08-19 18:31:00,71.5,65.4,30.20,SW,234,2.0,2.0,81,0.00,,,0.00,Wunderground v.1.15,2013-08-19 22:31:00,
2013-08-19 18:34:00,71.4,64.9,30.20,WSW,251,0.0,6.0,80,0.00,,,0.00,Wunderground v.1.15,2013-08-19 22:34:00,
2013-08-19 18:36:00,71.3,65.2,30.20,SW,215,0.0,6.0,81,0.00,,,0.00,Wunderground v.1.15,2013-08-19 22:36:00,
2013-08-19 18:37:00,71.2,65.1,30.20,SSW,202,0.0,6.0,81,0.00,,,0.00,Wunderground v.1.15,2013-08-19 22:37:00,
2013-08-19 18:40:00,71.1,65.0,30.20,South,173,0.0,1.0,81,0.00,,,0.00,Wunderground v.1.15,2013-08-19 22:40:00,
2013-08-19 18:41:00,71.1,65.0,30.20,SSE,151,0.0,2.0,81,0.00,,,0.00,Wunderground v.1.15,2013-08-19 22:41:00,
2013-08-19 18:42:00,71.0,64.9,30.20,SSW,197,0.0,2.0,81,0.00,,,0.00,Wunderground v.1.15,2013-08-19 22:42:00,
2013-08-19 18:45:00,70.9,65.1,30.20,SSW,199,0.0,3.0,82,0.00,,,0.00,Wunderground v.1.15,2013-08-19 22:45:00,
2013-08-19 18:46:00,70.9,65.1,30.19,South,189,0.0,3.0,82,0.00,,,0.00,Wunderground v.1.15,2013-08-19 22:46:00,
2013-08-19 18:48:00,70.9,65.1,30.19,SSW,196,0.0,3.0,82,0.00,,,0.00,Wunderground v.1.15,2013-08-19 22:48:00,
2013-08-19 18:50:00,70.9,65.1,30.20,SW,234,0.0,0.0,82,0.00,,,0.00,Wunderground v.1.15,2013-08-19 22:50:00,
2013-08-19 18:51:00,70.9,65.1,30.19,SSW,206,0.0,1.0,82,0.00,,,0.00,Wunderground v.1.15,2013-08-19 22:51:00,
2013-08-19 18:52:00,70.9,65.5,30.19,SSW,206,0.0,1.0,83,0.00,,,0.00,Wunderground v.1.15,2013-08-19 22:52:00,
2013-08-19 18:53:00,70.9,65.5,30.19,SSW,206,0.0,1.0,83,0.00,,,0.00,Wunderground v.1.15,2013-08-19 22:53:00,
2013-08-19 18:56:00,70.9,65.5,30.19,SW,226,0.0,1.0,83,0.00,,,0.00,Wunderground v.1.15,2013-08-19 22:56:00,
2013-08-19 18:57:00,70.9,65.1,30.19,South,188,0.0,1.0,82,0.00,,,0.00,Wunderground v.1.15,2013-08-19 22:57:00,
2013-08-19 18:58:00,70.9,65.1,30.19,South,185,0.0,1.0,82,0.00,,,0.00,Wunderground v.1.15,2013-08-19 22:58:00,
2013-08-19 19:01:00,71.0,65.2,30.19,SW,224,0.0,1.0,82,0.00,,,0.00,Wunderground v.1.15,2013-08-19 23:01:00,
2013-08-19 19:02:00,71.0,65.2,30.19,South,177,0.0,1.0,82,0.00,,,0.00,Wunderground v.1.15,2013-08-19 23:02:00,
2013-08-19 19:03:00,71.1,65.3,30.19,South,180,2.0,2.0,82,0.00,,,0.00,Wunderground v.1.15,2013-08-19 23:03:00,
2013-08-19 19:04:00,71.1,65.3,30.19,South,180,0.0,2.0,82,0.00,,,0.00,Wunderground v.1.15,2013-08-19 23:04:00,
2013-08-19 19:06:00,71.2,65.4,30.20,South,178,0.0,2.0,82,0.00,,,0.00,Wunderground v.1.15,2013-08-19 23:06:00,
2013-08-19 19:07:00,71.3,65.5,30.20,South,190,0.0,2.0,82,0.00,,,0.00,Wunderground v.1.15,2013-08-19 23:07:00,
2013-08-19 19:08:00,71.3,65.2,30.20,South,169,0.0,2.0,81,0.00,,,0.00,Wunderground v.1.15,2013-08-19 23:08:00,
2013-08-19 19:09:00,71.3,65.2,30.20,South,188,0.0,2.0,81,0.00,,,0.00,Wunderground v.1.15,2013-08-19 23:09:00,
2013-08-19 19:11:00,71.4,65.3,30.20,SSW,204,0.0,0.0,81,0.00,,,0.00,Wunderground v.1.15,2013-08-19 23:11:00,
2013-08-19 19:12:00,71.4,65.6,30.19,SW,217,0.0,0.0,82,0.00,,,0.00,Wunderground v.1.15,2013-08-19 23:12:00,
2013-08-19 19:13:00,71.4,65.6,30.20,WSW,252,1.0,1.0,82,0.00,,,0.00,Wunderground v.1.15,2013-08-19 23:13:00,
2013-08-19 19:14:00,71.4,65.3,30.20,SSW,211,1.0,3.0,81,0.00,,,0.00,Wunderground v.1.15,2013-08-19 23:14:00,
2013-08-19 19:17:00,71.4,65.3,30.20,SSW,213,1.0,3.0,81,0.00,,,0.00,Wunderground v.1.15,2013-08-19 23:17:00,
2013-08-19 19:18:00,71.4,65.3,30.20,SSW,200,0.0,3.0,81,0.00,,,0.00,Wunderground v.1.15,2013-08-19 23:18:00,
2013-08-19 19:19:00,71.4,65.3,30.20,SW,222,0.0,3.0,81,0.00,,,0.00,Wunderground v.1.15,2013-08-19 23:19:00,
2013-08-19 19:22:00,71.5,65.4,30.20,South,180,0.0,0.0,81,0.00,,,0.00,Wunderground v.1.15,2013-08-19 23:22:00,
2013-08-19 19:23:00,71.5,65.0,30.20,South,180,0.0,0.0,80,0.00,,,0.00,Wunderground v.1.15,2013-08-19 23:23:00,
2013-08-19 19:24:00,71.5,65.0,30.20,South,183,0.0,0.0,80,0.00,,,0.00,Wunderground v.1.15,2013-08-19 23:24:00,
2013-08-19 19:27:00,71.4,64.9,30.20,SSW,200,0.0,1.0,80,0.00,,,0.00,Wunderground v.1.15,2013-08-19 23:27:00,
2013-08-19 19:29:00,71.3,65.2,30.20,South,178,0.0,1.0,81,0.00,,,0.00,Wunderground v.1.15,2013-08-19 23:29:00,
2013-08-19 19:33:00,71.2,65.1,30.20,South,189,0.0,0.0,81,0.00,,,0.00,Wunderground v.1.15,2013-08-19 23:33:00,
2013-08-19 19:34:00,71.2,65.1,30.20,South,190,0.0,0.0,81,0.00,,,0.00,Wunderground v.1.15,2013-08-19 23:34:00,
2013-08-19 19:35:00,71.1,65.0,30.20,South,189,0.0,0.0,81,0.00,,,0.00,Wunderground v.1.15,2013-08-19 23:35:00,
2013-08-19 19:38:00,70.8,65.0,30.20,SSW,196,0.0,0.0,82,0.00,,,0.00,Wunderground v.1.15,2013-08-19 23:38:00,
2013-08-19 19:39:00,70.7,65.3,30.20,SSW,196,0.0,0.0,83,0.00,,,0.00,Wunderground v.1.15,2013-08-19 23:39:00,
2013-08-19 19:40:00,70.7,65.3,30.20,SSW,196,0.0,0.0,83,0.00,,,0.00,Wunderground v.1.15,2013-08-19 23:40:00,
2013-08-19 19:44:00,70.4,65.0,30.20,SSW,207,0.0,0.0,83,0.00,,,0.00,Wunderground v.1.15,2013-08-19 23:44:00,
2013-08-19 19:45:00,70.4,65.0,30.20,SSW,199,0.0,0.0,83,0.00,,,0.00,Wunderground v.1.15,2013-08-19 23:45:00,
2013-08-19 19:49:00,70.1,65.0,30.20,SSW,199,0.0,0.0,84,0.00,,,0.00,Wunderground v.1.15,2013-08-19 23:49:00,
2013-08-19 19:50:00,70.1,65.0,30.20,SSW,198,0.0,0.0,84,0.00,,,0.00,Wunderground v.1.15,2013-08-19 23:50:00,
2013-08-19 19:51:00,70.0,64.9,30.20,South,191,0.0,0.0,84,0.00,,,0.00,Wunderground v.1.15,2013-08-19 23:51:00,
2013-08-19 19:55:00,69.8,65.1,30.20,South,188,0.0,0.0,85,0.00,,,0.00,Wunderground v.1.15,2013-08-19 23:55:00,
2013-08-19 19:56:00,69.7,65.0,30.20,South,188,0.0,0.0,85,0.00,,,0.00,Wunderground v.1.15,2013-08-19 23:56:00,
2013-08-19 19:57:00,69.7,65.0,30.20,South,188,0.0,0.0,85,0.00,,,0.00,Wunderground v.1.15,2013-08-19 23:57:00,
2013-08-19 20:00:00,69.5,64.8,30.20,South,188,0.0,0.0,85,0.00,,,0.00,Wunderground v.1.15,2013-08-20 00:00:00,
2013-08-19 20:01:00,69.4,64.7,30.21,South,188,0.0,0.0,85,0.00,,,0.00,Wunderground v.1.15,2013-08-20 00:01:00,
2013-08-19 20:02:00,69.4,64.7,30.21,South,188,0.0,0.0,85,0.00,,,0.00,Wunderground v.1.15,2013-08-20 00:02:00,
2013-08-19 20:05:00,69.3,64.9,30.21,South,188,0.0,0.0,86,0.00,,,0.00,Wunderground v.1.15,2013-08-20 00:05:00,
2013-08-19 20:06:00,69.3,64.9,30.21,South,188,0.0,0.0,86,0.00,,,0.00,Wunderground v.1.15,2013-08-20 00:06:00,
2013-08-19 20:07:00,69.2,64.8,30.21,South,188,0.0,0.0,86,0.00,,,0.00,Wunderground v.1.15,2013-08-20 00:07:00,
2013-08-19 20:08:00,69.2,64.8,30.21,South,188,0.0,0.0,86,0.00,,,0.00,Wunderground v.1.15,2013-08-20 00:08:00,
2013-08-19 20:10:00,69.1,64.7,30.21,South,188,0.0,0.0,86,0.00,,,0.00,Wunderground v.1.15,2013-08-20 00:10:00,
2013-08-19 20:11:00,69.0,64.6,30.21,South,188,0.0,0.0,86,0.00,,,0.00,Wunderground v.1.15,2013-08-20 00:11:00,
2013-08-19 20:12:00,69.0,64.6,30.21,South,188,0.0,0.0,86,0.00,,,0.00,Wunderground v.1.15,2013-08-20 00:12:00,
2013-08-19 20:13:00,69.0,64.6,30.21,South,188,0.0,0.0,86,0.00,,,0.00,Wunderground v.1.15,2013-08-20 00:13:00,
2013-08-19 20:15:00,68.9,64.9,30.21,South,188,0.0,0.0,87,0.00,,,0.00,Wunderground v.1.15,2013-08-20 00:15:00,
2013-08-19 20:16:00,68.9,64.9,30.21,South,188,0.0,0.0,87,0.00,,,0.00,Wunderground v.1.15,2013-08-20 00:16:00,
2013-08-19 20:17:00,68.9,65.2,30.21,South,188,0.0,0.0,88,0.00,,,0.00,Wunderground v.1.15,2013-08-20 00:17:00,
2013-08-19 20:18:00,68.8,65.1,30.21,South,188,0.0,0.0,88,0.00,,,0.00,Wunderground v.1.15,2013-08-20 00:18:00,
2013-08-19 20:20:00,68.7,65.0,30.21,South,188,0.0,0.0,88,0.00,,,0.00,Wunderground v.1.15,2013-08-20 00:20:00,
2013-08-19 20:21:00,68.7,65.0,30.21,South,188,0.0,0.0,88,0.00,,,0.00,Wunderground v.1.15,2013-08-20 00:21:00,
2013-08-19 20:22:00,68.6,64.9,30.21,South,186,0.0,0.0,88,0.00,,,0.00,Wunderground v.1.15,2013-08-20 00:22:00,
2013-08-19 20:23:00,68.6,64.9,30.21,South,186,0.0,0.0,88,0.00,,,0.00,Wunderground v.1.15,2013-08-20 00:23:00,
2013-08-19 20:25:00,68.5,65.1,30.21,South,186,0.0,0.0,89,0.00,,,0.00,Wunderground v.1.15,2013-08-20 00:25:00,
2013-08-19 20:26:00,68.5,65.1,30.21,South,186,0.0,0.0,89,0.00,,,0.00,Wunderground v.1.15,2013-08-20 00:26:00,
2013-08-19 20:27:00,68.4,65.0,30.21,South,186,0.0,0.0,89,0.00,,,0.00,Wunderground v.1.15,2013-08-20 00:27:00,
2013-08-19 20:28:00,68.4,65.0,30.21,South,186,0.0,0.0,89,0.00,,,0.00,Wunderground v.1.15,2013-08-20 00:28:00,
2013-08-19 20:31:00,68.3,65.3,30.21,South,186,0.0,0.0,90,0.00,,,0.00,Wunderground v.1.15,2013-08-20 00:31:00,
2013-08-19 20:32:00,68.2,65.2,30.21,South,186,0.0,0.0,90,0.00,,,0.00,Wunderground v.1.15,2013-08-20 00:32:00,
2013-08-19 20:33:00,68.2,65.2,30.21,South,186,0.0,0.0,90,0.00,,,0.00,Wunderground v.1.15,2013-08-20 00:33:00,
2013-08-19 20:36:00,68.0,65.0,30.21,South,186,0.0,0.0,90,0.00,,,0.00,Wunderground v.1.15,2013-08-20 00:36:00,
2013-08-19 20:37:00,68.0,65.0,30.21,South,186,0.0,0.0,90,0.00,,,0.00,Wunderground v.1.15,2013-08-20 00:37:00,
2013-08-19 20:38:00,67.9,64.9,30.21,South,186,0.0,0.0,90,0.00,,,0.00,Wunderground v.1.15,2013-08-20 00:38:00,
2013-08-19 20:41:00,67.7,64.7,30.21,South,186,0.0,0.0,90,0.00,,,0.00,Wunderground v.1.15,2013-08-20 00:41:00,
2013-08-19 20:42:00,67.7,65.0,30.21,South,186,0.0,0.0,91,0.00,,,0.00,Wunderground v.1.15,2013-08-20 00:42:00,
2013-08-19 20:43:00,67.6,64.9,30.21,South,186,0.0,0.0,91,0.00,,,0.00,Wunderground v.1.15,2013-08-20 00:43:00,
2013-08-19 20:44:00,67.6,64.9,30.21,South,186,0.0,0.0,91,0.00,,,0.00,Wunderground v.1.15,2013-08-20 00:44:00,
2013-08-19 20:46:00,67.4,64.7,30.21,South,188,0.0,0.0,91,0.00,,,0.00,Wunderground v.1.15,2013-08-20 00:46:00,
2013-08-19 20:47:00,67.4,64.7,30.21,South,188,0.0,0.0,91,0.00,,,0.00,Wunderground v.1.15,2013-08-20 00:47:00,
2013-08-19 20:48:00,67.3,64.6,30.21,South,188,0.0,0.0,91,0.00,,,0.00,Wunderground v.1.15,2013-08-20 00:48:00,
2013-08-19 20:49:00,67.3,64.6,30.21,South,188,0.0,0.0,91,0.00,,,0.00,Wunderground v.1.15,2013-08-20 00:49:00,
2013-08-19 20:51:00,67.1,64.4,30.21,South,188,0.0,0.0,91,0.00,,,0.00,Wunderground v.1.15,2013-08-20 00:51:00,
2013-08-19 20:52:00,67.1,64.4,30.21,South,188,0.0,0.0,91,0.00,,,0.00,Wunderground v.1.15,2013-08-20 00:52:00,
2013-08-19 20:53:00,67.0,64.6,30.21,South,188,0.0,0.0,92,0.00,,,0.00,Wunderground v.1.15,2013-08-20 00:53:00,
2013-08-19 20:55:00,66.9,64.5,30.21,South,188,0.0,0.0,92,0.00,,,0.00,Wunderground v.1.15,2013-08-20 00:55:00,
2013-08-19 20:56:00,66.8,64.4,30.21,South,188,0.0,0.0,92,0.00,,,0.00,Wunderground v.1.15,2013-08-20 00:56:00,
2013-08-19 20:57:00,66.8,64.4,30.21,South,188,0.0,0.0,92,0.00,,,0.00,Wunderground v.1.15,2013-08-20 00:57:00,
2013-08-19 20:58:00,66.7,64.3,30.21,South,188,0.0,0.0,92,0.00,,,0.00,Wunderground v.1.15,2013-08-20 00:58:00,
2013-08-19 20:59:00,66.7,64.3,30.21,South,188,0.0,0.0,92,0.00,,,0.00,Wunderground v.1.15,2013-08-20 00:59:00,
2013-08-19 21:00:00,66.6,64.2,30.21,South,188,0.0,0.0,92,0.00,,,0.00,Wunderground v.1.15,2013-08-20 01:00:00,
2013-08-19 21:01:00,66.5,64.4,30.21,South,188,0.0,1.0,93,0.00,,,0.00,Wunderground v.1.15,2013-08-20 01:01:00,
2013-08-19 21:02:00,66.5,64.4,30.21,South,188,0.0,1.0,93,0.00,,,0.00,Wunderground v.1.15,2013-08-20 01:02:00,
2013-08-19 21:03:00,66.5,64.4,30.21,South,188,0.0,1.0,93,0.00,,,0.00,Wunderground v.1.15,2013-08-20 01:03:00,
2013-08-19 21:04:00,66.4,64.3,30.21,South,188,0.0,1.0,93,0.00,,,0.00,Wunderground v.1.15,2013-08-20 01:04:00,
2013-08-19 21:05:00,66.4,64.3,30.21,South,188,0.0,1.0,93,0.00,,,0.00,Wunderground v.1.15,2013-08-20 01:05:00,
2013-08-19 21:07:00,66.4,64.3,30.21,South,188,0.0,1.0,93,0.00,,,0.00,Wunderground v.1.15,2013-08-20 01:07:00,
2013-08-19 21:08:00,66.3,64.2,30.21,South,188,0.0,1.0,93,0.00,,,0.00,Wunderground v.1.15,2013-08-20 01:08:00,
2013-08-19 21:09:00,66.3,64.2,30.21,South,188,0.0,1.0,93,0.00,,,0.00,Wunderground v.1.15,2013-08-20 01:09:00,
2013-08-19 21:10:00,66.3,64.2,30.21,South,188,0.0,0.0,93,0.00,,,0.00,Wunderground v.1.15,2013-08-20 01:10:00,
2013-08-19 21:12:00,66.2,64.1,30.21,South,188,0.0,0.0,93,0.00,,,0.00,Wunderground v.1.15,2013-08-20 01:12:00,
2013-08-19 21:14:00,66.2,64.1,30.21,South,188,0.0,0.0,93,0.00,,,0.00,Wunderground v.1.15,2013-08-20 01:14:00,
2013-08-19 21:16:00,66.1,64.0,30.22,South,188,0.0,0.0,93,0.00,,,0.00,Wunderground v.1.15,2013-08-20 01:16:00,
2013-08-19 21:17:00,66.1,64.0,30.21,South,188,0.0,0.0,93,0.00,,,0.00,Wunderground v.1.15,2013-08-20 01:17:00,
2013-08-19 21:19:00,66.0,63.9,30.22,South,188,0.0,0.0,93,0.00,,,0.00,Wunderground v.1.15,2013-08-20 01:19:00,
2013-08-19 21:20:00,66.0,63.9,30.22,South,188,0.0,0.0,93,0.00,,,0.00,Wunderground v.1.15,2013-08-20 01:20:00,
2013-08-19 21:21:00,66.0,64.2,30.22,South,188,0.0,0.0,94,0.00,,,0.00,Wunderground v.1.15,2013-08-20 01:21:00,
2013-08-19 21:22:00,65.9,64.1,30.22,South,188,0.0,0.0,94,0.00,,,0.00,Wunderground v.1.15,2013-08-20 01:22:00,
2013-08-19 21:24:00,65.9,64.1,30.22,South,188,0.0,0.0,94,0.00,,,0.00,Wunderground v.1.15,2013-08-20 01:24:00,
2013-08-19 21:25:00,65.9,63.8,30.22,South,188,0.0,0.0,93,0.00,,,0.00,Wunderground v.1.15,2013-08-20 01:25:00,
2013-08-19 21:26:00,65.8,63.7,30.22,South,188,0.0,0.0,93,0.00,,,0.00,Wunderground v.1.15,2013-08-20 01:26:00,
2013-08-19 21:27:00,65.8,63.7,30.22,South,188,0.0,0.0,93,0.00,,,0.00,Wunderground v.1.15,2013-08-20 01:27:00,
2013-08-19 21:30:00,65.7,63.9,30.22,South,188,0.0,0.0,94,0.00,,,0.00,Wunderground v.1.15,2013-08-20 01:30:00,
2013-08-19 21:31:00,65.7,63.9,30.22,South,188,0.0,0.0,94,0.00,,,0.00,Wunderground v.1.15,2013-08-20 01:31:00,
2013-08-19 21:32:00,65.7,63.9,30.22,South,188,0.0,0.0,94,0.00,,,0.00,Wunderground v.1.15,2013-08-20 01:32:00,
2013-08-19 21:35:00,65.6,63.8,30.22,South,188,0.0,0.0,94,0.00,,,0.00,Wunderground v.1.15,2013-08-20 01:35:00,
2013-08-19 21:36:00,65.6,63.8,30.22,South,188,0.0,0.0,94,0.00,,,0.00,Wunderground v.1.15,2013-08-20 01:36:00,
2013-08-19 21:37:00,65.5,63.7,30.22,South,188,0.0,0.0,94,0.00,,,0.00,Wunderground v.1.15,2013-08-20 01:37:00,
2013-08-19 21:38:00,65.5,63.7,30.22,South,190,2.0,2.0,94,0.00,,,0.00,Wunderground v.1.15,2013-08-20 01:38:00,
2013-08-19 21:40:00,65.3,63.5,30.23,SSW,195,0.0,1.0,94,0.00,,,0.00,Wunderground v.1.15,2013-08-20 01:40:00,
2013-08-19 21:41:00,65.3,63.5,30.23,SSW,195,1.0,1.0,94,0.00,,,0.00,Wunderground v.1.15,2013-08-20 01:41:00,
2013-08-19 21:42:00,65.2,63.4,30.23,SSW,198,0.0,2.0,94,0.00,,,0.00,Wunderground v.1.15,2013-08-20 01:42:00,
2013-08-19 21:43:00,65.2,63.4,30.23,SSW,203,2.0,2.0,94,0.00,,,0.00,Wunderground v.1.15,2013-08-20 01:43:00,
2013-08-19 21:45:00,65.1,63.3,30.22,SSW,202,0.0,2.0,94,0.00,,,0.00,Wunderground v.1.15,2013-08-20 01:45:00,
2013-08-19 21:46:00,65.0,63.2,30.22,SSW,202,0.0,2.0,94,0.00,,,0.00,Wunderground v.1.15,2013-08-20 01:46:00,
2013-08-19 21:47:00,65.0,63.2,30.22,South,186,0.0,2.0,94,0.00,,,0.00,Wunderground v.1.15,2013-08-20 01:47:00,
2013-08-19 21:49:00,64.9,63.1,30.23,South,186,0.0,2.0,94,0.00,,,0.00,Wunderground v.1.15,2013-08-20 01:49:00,
2013-08-19 21:50:00,64.9,63.1,30.23,SSW,205,0.0,2.0,94,0.00,,,0.00,Wunderground v.1.15,2013-08-20 01:50:00,
2013-08-19 21:51:00,64.9,63.1,30.23,SSW,209,1.0,2.0,94,0.00,,,0.00,Wunderground v.1.15,2013-08-20 01:51:00,
2013-08-19 21:53:00,64.9,63.1,30.23,SSW,205,0.0,2.0,94,0.00,,,0.00,Wunderground v.1.15,2013-08-20 01:53:00,
2013-08-19 21:54:00,64.9,63.1,30.23,SSW,205,1.0,2.0,94,0.00,,,0.00,Wunderground v.1.15,2013-08-20 01:54:00,
2013-08-19 21:56:00,64.8,63.0,30.23,SSW,205,0.0,2.0,94,0.00,,,0.00,Wunderground v.1.15,2013-08-20 01:56:00,
2013-08-19 21:58:00,64.8,63.0,30.23,SSW,212,2.0,3.0,94,0.00,,,0.00,Wunderground v.1.15,2013-08-20 01:58:00,
2013-08-19 21:59:00,64.8,63.0,30.23,SSW,208,0.0,3.0,94,0.00,,,0.00,Wunderground v.1.15,2013-08-20 01:59:00,
2013-08-19 22:01:00,64.8,63.0,30.23,SSW,211,1.0,2.0,94,0.00,,,0.00,Wunderground v.1.15,2013-08-20 02:01:00,
2013-08-19 22:04:00,64.8,63.0,30.23,SSW,209,0.0,3.0,94,0.00,,,0.00,Wunderground v.1.15,2013-08-20 02:04:00,
2013-08-19 22:06:00,64.8,63.0,30.23,SSW,211,3.0,3.0,94,0.00,,,0.00,Wunderground v.1.15,2013-08-20 02:06:00,
2013-08-19 22:07:00,64.8,63.0,30.23,SSW,211,1.0,3.0,94,0.00,,,0.00,Wunderground v.1.15,2013-08-20 02:07:00,
2013-08-19 22:09:00,64.9,63.1,30.23,SSW,211,1.0,3.0,94,0.00,,,0.00,Wunderground v.1.15,2013-08-20 02:09:00,
2013-08-19 22:11:00,64.9,63.1,30.23,SSW,211,1.0,1.0,94,0.00,,,0.00,Wunderground v.1.15,2013-08-20 02:11:00,
2013-08-19 22:12:00,64.9,63.1,30.23,SSW,211,0.0,1.0,94,0.00,,,0.00,Wunderground v.1.15,2013-08-20 02:12:00,
2013-08-19 22:14:00,64.9,63.1,30.23,SW,222,1.0,3.0,94,0.00,,,0.00,Wunderground v.1.15,2013-08-20 02:14:00,
2013-08-19 22:15:00,64.9,63.1,30.23,SW,222,2.0,3.0,94,0.00,,,0.00,Wunderground v.1.15,2013-08-20 02:15:00,
2013-08-19 22:17:00,64.8,63.0,30.23,SSW,209,1.0,3.0,94,0.00,,,0.00,Wunderground v.1.15,2013-08-20 02:17:00,
2013-08-19 22:19:00,64.8,63.0,30.23,SW,232,0.0,3.0,94,0.00,,,0.00,Wunderground v.1.15,2013-08-20 02:19:00,
2013-08-19 22:20:00,64.8,63.0,30.23,SSW,204,2.0,2.0,94,0.00,,,0.00,Wunderground v.1.15,2013-08-20 02:20:00,
2013-08-19 22:22:00,64.8,63.0,30.23,SSW,211,2.0,2.0,94,0.00,,,0.00,Wunderground v.1.15,2013-08-20 02:22:00,
2013-08-19 22:23:00,64.8,63.0,30.23,WSW,241,0.0,2.0,94,0.00,,,0.00,Wunderground v.1.15,2013-08-20 02:23:00,
2013-08-19 22:24:00,64.8,63.0,30.23,WSW,241,0.0,2.0,94,0.00,,,0.00,Wunderground v.1.15,2013-08-20 02:24:00,
2013-08-19 22:25:00,64.8,63.0,30.23,WSW,241,0.0,2.0,94,0.00,,,0.00,Wunderground v.1.15,2013-08-20 02:25:00,
2013-08-19 22:27:00,64.8,63.0,30.23,WSW,241,0.0,2.0,94,0.00,,,0.00,Wunderground v.1.15,2013-08-20 02:27:00,
2013-08-19 22:28:00,64.7,62.9,30.23,WSW,241,2.0,2.0,94,0.00,,,0.00,Wunderground v.1.15,2013-08-20 02:28:00,
2013-08-19 22:30:00,64.7,62.9,30.23,WSW,240,1.0,1.0,94,0.00,,,0.00,Wunderground v.1.15,2013-08-20 02:30:00,
2013-08-19 22:32:00,64.7,62.9,30.22,SW,224,1.0,3.0,94,0.00,,,0.00,Wunderground v.1.15,2013-08-20 02:32:00,
2013-08-19 22:34:00,64.7,62.9,30.22,SW,225,2.0,3.0,94,0.00,,,0.00,Wunderground v.1.15,2013-08-20 02:34:00,
2013-08-19 22:35:00,64.7,62.9,30.22,SW,227,0.0,3.0,94,0.00,,,0.00,Wunderground v.1.15,2013-08-20 02:35:00,
2013-08-19 22:36:00,64.6,62.8,30.22,SW,227,0.0,3.0,94,0.00,,,0.00,Wunderground v.1.15,2013-08-20 02:36:00,
2013-08-19 22:37:00,64.6,62.8,30.23,SW,227,1.0,3.0,94,0.00,,,0.00,Wunderground v.1.15,2013-08-20 02:37:00,
2013-08-19 22:38:00,64.6,62.8,30.23,SW,227,0.0,3.0,94,0.00,,,0.00,Wunderground v.1.15,2013-08-20 02:38:00,
2013-08-19 22:39:00,64.6,62.8,30.23,SW,227,0.0,3.0,94,0.00,,,0.00,Wunderground v.1.15,2013-08-20 02:39:00,
2013-08-19 22:40:00,64.6,62.8,30.23,SW,227,0.0,1.0,94,0.00,,,0.00,Wunderground v.1.15,2013-08-20 02:40:00,
2013-08-19 22:42:00,64.6,62.8,30.23,SW,227,0.0,1.0,94,0.00,,,0.00,Wunderground v.1.15,2013-08-20 02:42:00,
2013-08-19 22:43:00,64.5,62.7,30.23,SW,227,0.0,1.0,94,0.00,,,0.00,Wunderground v.1.15,2013-08-20 02:43:00,
2013-08-19 22:44:00,64.5,62.7,30.23,SW,227,0.0,1.0,94,0.00,,,0.00,Wunderground v.1.15,2013-08-20 02:44:00,
2013-08-19 22:46:00,64.5,62.7,30.23,SW,227,0.0,1.0,94,0.00,,,0.00,Wunderground v.1.15,2013-08-20 02:46:00,
2013-08-19 22:47:00,64.5,62.7,30.23,SW,227,1.0,1.0,94,0.00,,,0.00,Wunderground v.1.15,2013-08-20 02:47:00,
2013-08-19 22:48:00,64.5,62.7,30.23,SW,229,1.0,1.0,94,0.00,,,0.00,Wunderground v.1.15,2013-08-20 02:48:00,
2013-08-19 22:49:00,64.4,62.6,30.23,SW,229,0.0,1.0,94,0.00,,,0.00,Wunderground v.1.15,2013-08-20 02:49:00,
2013-08-19 22:51:00,64.4,62.6,30.23,SW,229,0.0,1.0,94,0.00,,,0.00,Wunderground v.1.15,2013-08-20 02:51:00,
2013-08-19 22:52:00,64.4,62.6,30.23,West,273,2.0,2.0,94,0.00,,,0.00,Wunderground v.1.15,2013-08-20 02:52:00,
2013-08-19 22:53:00,64.4,62.6,30.23,West,273,1.0,2.0,94,0.00,,,0.00,Wunderground v.1.15,2013-08-20 02:53:00,
2013-08-19 22:54:00,64.3,62.5,30.23,West,273,1.0,2.0,94,0.00,,,0.00,Wunderground v.1.15,2013-08-20 02:54:00,
2013-08-19 22:57:00,64.3,62.5,30.23,West,275,1.0,3.0,94,0.00,,,0.00,Wunderground v.1.15,2013-08-20 02:57:00,
2013-08-19 22:58:00,64.3,62.5,30.23,WNW,292,1.0,3.0,94,0.00,,,0.00,Wunderground v.1.15,2013-08-20 02:58:00,
2013-08-19 22:59:00,64.3,62.5,30.23,WNW,292,2.0,3.0,94,0.00,,,0.00,Wunderground v.1.15,2013-08-20 02:59:00,
2013-08-19 23:02:00,64.2,62.4,30.23,WNW,294,0.0,3.0,94,0.00,,,0.00,Wunderground v.1.15,2013-08-20 03:02:00,
2013-08-19 23:03:00,64.2,62.4,30.23,WNW,294,1.0,3.0,94,0.00,,,0.00,Wunderground v.1.15,2013-08-20 03:03:00,
2013-08-19 23:04:00,64.2,62.4,30.23,WSW,248,2.0,3.0,94,0.00,,,0.00,Wunderground v.1.15,2013-08-20 03:04:00,
2013-08-19 23:05:00,64.2,62.4,30.23,WSW,248,1.0,3.0,94,0.00,,,0.00,Wunderground v.1.15,2013-08-20 03:05:00,
2013-08-19 23:07:00,64.1,62.3,30.23,WSW,248,0.0,3.0,94,0.00,,,0.00,Wunderground v.1.15,2013-08-20 03:07:00,
2013-08-19 23:08:00,64.1,62.3,30.23,WSW,248,0.0,3.0,94,0.00,,,0.00,Wunderground v.1.15,2013-08-20 03:08:00,
2013-08-19 23:09:00,64.1,62.3,30.23,WSW,248,0.0,3.0,94,0.00,,,0.00,Wunderground v.1.15,2013-08-20 03:09:00,
2013-08-19 23:10:00,64.1,62.3,30.23,WSW,248,1.0,2.0,94,0.00,,,0.00,Wunderground v.1.15,2013-08-20 03:10:00,
2013-08-19 23:13:00,64.1,62.3,30.23,WSW,246,1.0,3.0,94,0.00,,,0.00,Wunderground v.1.15,2013-08-20 03:13:00,
2013-08-19 23:15:00,64.0,62.2,30.23,WSW,246,1.0,3.0,94,0.00,,,0.00,Wunderground v.1.15,2013-08-20 03:15:00,
2013-08-19 23:16:00,64.0,62.2,30.23,WSW,246,0.0,3.0,94,0.00,,,0.00,Wunderground v.1.15,2013-08-20 03:16:00,
2013-08-19 23:18:00,64.0,62.2,30.23,WSW,246,0.0,3.0,94,0.00,,,0.00,Wunderground v.1.15,2013-08-20 03:18:00,
2013-08-19 23:20:00,64.0,62.2,30.23,WSW,246,0.0,1.0,94,0.00,,,0.00,Wunderground v.1.15,2013-08-20 03:20:00,
2013-08-19 23:21:00,63.9,62.1,30.23,WSW,250,1.0,2.0,94,0.00,,,0.00,Wunderground v.1.15,2013-08-20 03:21:00,
2013-08-19 23:23:00,63.9,62.1,30.23,WSW,250,0.0,2.0,94,0.00,,,0.00,Wunderground v.1.15,2013-08-20 03:23:00,
2013-08-19 23:24:00,63.9,62.1,30.23,WSW,250,0.0,2.0,94,0.00,,,0.00,Wunderground v.1.15,2013-08-20 03:24:00,
2013-08-19 23:25:00,63.9,62.4,30.23,WSW,250,0.0,2.0,95,0.00,,,0.00,Wunderground v.1.15,2013-08-20 03:25:00,
2013-08-19 23:26:00,63.9,62.4,30.23,WSW,250,0.0,2.0,95,0.00,,,0.00,Wunderground v.1.15,2013-08-20 03:26:00,
2013-08-19 23:29:00,63.8,62.3,30.23,WSW,250,0.0,2.0,95,0.00,,,0.00,Wunderground v.1.15,2013-08-20 03:29:00,
2013-08-19 23:30:00,63.8,62.3,30.23,WSW,250,0.0,0.0,95,0.00,,,0.00,Wunderground v.1.15,2013-08-20 03:30:00,
2013-08-19 23:31:00,63.8,62.3,30.23,WSW,250,0.0,1.0,95,0.00,,,0.00,Wunderground v.1.15,2013-08-20 03:31:00,
2013-08-19 23:34:00,63.8,62.3,30.23,WSW,250,1.0,1.0,95,0.00,,,0.00,Wunderground v.1.15,2013-08-20 03:34:00,
2013-08-19 23:36:00,63.7,62.2,30.23,WSW,250,0.0,2.0,95,0.00,,,0.00,Wunderground v.1.15,2013-08-20 03:36:00,
2013-08-19 23:39:00,63.7,62.2,30.23,WSW,250,0.0,2.0,95,0.00,,,0.00,Wunderground v.1.15,2013-08-20 03:39:00,
2013-08-19 23:40:00,63.7,62.2,30.23,WSW,250,0.0,0.0,95,0.00,,,0.00,Wunderground v.1.15,2013-08-20 03:40:00,
2013-08-19 23:41:00,63.7,62.2,30.23,WSW,250,0.0,0.0,95,0.00,,,0.00,Wunderground v.1.15,2013-08-20 03:41:00,
2013-08-19 23:42:00,63.7,62.2,30.23,WSW,250,0.0,0.0,95,0.00,,,0.00,Wunderground v.1.15,2013-08-20 03:42:00,
2013-08-19 23:44:00,63.6,62.1,30.23,WSW,250,0.0,0.0,95,0.00,,,0.00,Wunderground v.1.15,2013-08-20 03:44:00,
2013-08-19 23:45:00,63.6,62.1,30.23,WSW,250,0.0,0.0,95,0.00,,,0.00,Wunderground v.1.15,2013-08-20 03:45:00,
2013-08-19 23:46:00,63.6,62.1,30.23,WSW,250,0.0,0.0,95,0.00,,,0.00,Wunderground v.1.15,2013-08-20 03:46:00,
2013-08-19 23:47:00,63.6,62.1,30.23,WSW,250,0.0,0.0,95,0.00,,,0.00,Wunderground v.1.15,2013-08-20 03:47:00,
2013-08-19 23:49:00,63.6,62.1,30.23,WSW,250,0.0,0.0,95,0.00,,,0.00,Wunderground v.1.15,2013-08-20 03:49:00,
2013-08-19 23:51:00,63.5,62.0,30.23,WSW,250,0.0,0.0,95,0.00,,,0.00,Wunderground v.1.15,2013-08-20 03:51:00,
2013-08-19 23:52:00,63.5,62.0,30.23,WSW,250,0.0,0.0,95,0.00,,,0.00,Wunderground v.1.15,2013-08-20 03:52:00,
2013-08-19 23:53:00,63.5,62.0,30.23,WSW,250,1.0,1.0,95,0.00,,,0.00,Wunderground v.1.15,2013-08-20 03:53:00,
2013-08-19 23:55:00,63.4,61.9,30.23,WSW,250,0.0,1.0,95,0.00,,,0.00,Wunderground v.1.15,2013-08-20 03:55:00,
2013-08-19 23:56:00,63.4,61.9,30.24,WSW,250,1.0,1.0,95,0.00,,,0.00,Wunderground v.1.15,2013-08-20 03:56:00,
2013-08-19 23:57:00,63.4,61.9,30.24,WSW,250,1.0,1.0,95,0.00,,,0.00,Wunderground v.1.15,2013-08-20 03:57:00,
2013-08-19 23:58:00,63.4,61.9,30.24,WSW,250,2.0,2.0,95,0.00,,,0.00,Wunderground v.1.15,2013-08-20 03:58:00,